M I D A S
Marine Information and Data Acquisition System
Tripno 1724 of the Zeeleeuw from 2009-03-16 08:21:21 to 2009-03-16 13:36:56
Back to CruiseResearch ActivitiesStationsMapUnderway DataData graphs

EquipmentUnitsComment
TimeDGPSUTC
LatitudeDGPSDM.mWGS84
LongitudeDGPSDM.mWGS84
TemperatureSBE03/SBE38deg celciusITS90
ConductivitySBE21S/mITS90
SalinitySBE21 Practical Salinity Units
ChlorophylAChelsea fluorimeterg/lCalibrated in Aceton
Missing or incorrect values are displayed as -999
Sea surface data collected by the RV Zeeleeuw from 2009-03-16 08:24:21 to 2009-03-16 13:46:07
                                                                                    Next 1000 lines
Time Latitude Longitude Temperature Conductivity Salinity ChlorophylA
2009-03-16 08:24:32 51°13.663 2°55.956 -999 0.049516 0.341098 -1.035392
2009-03-16 08:24:37 51°13.663 2°55.954 -999 0.049516 0.341098 -1.035392
2009-03-16 08:24:42 51°13.664 2°55.951 -999 0.049516 0.34109 -1.035392
2009-03-16 08:24:47 51°13.665 2°55.948 -999 0.049516 0.34109 -1.035392
2009-03-16 08:24:52 51°13.666 2°55.944 -999 0.049516 0.341082 -1.035392
2009-03-16 08:24:58 51°13.668 2°55.94 -999 0.049516 0.341073 -1.035392
2009-03-16 08:25:04 51°13.669 2°55.936 -999 0.049516 0.341073 -1.035392
2009-03-16 08:25:09 51°13.671 2°55.931 -999 0.049516 0.341073 -1.035392
2009-03-16 08:25:15 51°13.673 2°55.926 -999 0.049516 0.341065 -1.035392
2009-03-16 08:25:21 51°13.675 2°55.921 -999 0.049516 0.341057 -1.035392
2009-03-16 08:25:25 51°13.676 2°55.917 -999 0.049516 0.341049 -1.035392
2009-03-16 08:25:30 51°13.678 2°55.912 -999 0.049516 0.341041 -1.035392
2009-03-16 08:25:36 51°13.68 2°55.906 -999 0.049516 0.341041 -1.035392
2009-03-16 08:25:41 51°13.682 2°55.901 -999 0.049516 0.341041 -1.035392
2009-03-16 08:25:46 51°13.683 2°55.896 -999 0.049516 0.341033 -1.035392
2009-03-16 08:25:50 51°13.684 2°55.892 -999 0.049516 0.341024 -1.035392
2009-03-16 08:25:55 51°13.686 2°55.887 -999 0.049516 0.341024 -1.035392
2009-03-16 08:26:00 51°13.687 2°55.882 -999 0.049516 0.341016 -1.035392
2009-03-16 08:26:05 51°13.688 2°55.877 -999 0.049516 0.341016 -1.035392
2009-03-16 08:26:10 51°13.689 2°55.872 -999 0.049516 0.341 -1.035392
2009-03-16 08:26:15 51°13.69 2°55.867 -999 0.049516 0.341 -1.035392
2009-03-16 08:26:20 51°13.691 2°55.862 -999 0.049516 0.340992 -1.035392
2009-03-16 08:26:25 51°13.692 2°55.857 -999 0.049516 0.340992 -1.035392
2009-03-16 08:26:30 51°13.693 2°55.852 -999 0.049516 0.340984 -1.035392
2009-03-16 08:26:34 51°13.694 2°55.848 -999 0.049516 0.340984 -1.035392
2009-03-16 08:26:39 51°13.695 2°55.842 -999 0.049516 0.340967 -1.035392
2009-03-16 08:26:44 51°13.696 2°55.837 -999 0.049516 0.340959 -1.035392
2009-03-16 08:26:50 51°13.696 2°55.83 -999 0.049516 0.340951 -1.035392
2009-03-16 08:26:54 51°13.697 2°55.826 -999 0.049516 0.340943 -1.035392
2009-03-16 08:26:58 51°13.697 2°55.822 -999 0.049516 0.340934 -1.035392
2009-03-16 08:27:04 51°13.698 2°55.815 -999 0.049516 0.340934 -1.035392
2009-03-16 08:27:09 51°13.698 2°55.809 -999 0.049516 0.340934 -1.035392
2009-03-16 08:27:14 51°13.699 2°55.804 -999 0.049516 0.340934 -1.035392
2009-03-16 08:27:19 51°13.699 2°55.798 -999 0.049516 0.340926 -1.035392
2009-03-16 08:27:24 51°13.699 2°55.793 -999 0.049516 0.340918 -1.035392
2009-03-16 08:27:29 51°13.699 2°55.788 -999 0.049516 0.34091 -1.035392
2009-03-16 08:27:34 51°13.699 2°55.782 -999 0.049516 0.34091 -1.035392
2009-03-16 08:27:39 51°13.699 2°55.778 -999 0.049516 0.34091 -1.035392
2009-03-16 08:27:43 51°13.699 2°55.775 -999 0.049516 0.340894 -1.035392
2009-03-16 08:27:48 51°13.699 2°55.771 -999 0.049516 0.340885 -1.035392
2009-03-16 08:27:53 51°13.699 2°55.769 -999 0.049516 0.340869 -1.035392
2009-03-16 08:27:58 51°13.699 2°55.767 -999 0.049516 0.340861 -1.035392
2009-03-16 08:28:03 51°13.7 2°55.767 -999 0.049516 0.340861 -1.035392
2009-03-16 08:28:08 51°13.701 2°55.767 -999 0.049619 0.341586 -1.035392
2009-03-16 08:28:12 51°13.702 2°55.767 -999 0.049516 0.340836 -1.035392
2009-03-16 08:28:17 51°13.703 2°55.767 -999 0.049516 0.340836 -1.035392
2009-03-16 08:28:22 51°13.705 2°55.769 -999 0.049516 0.34082 -1.035392
2009-03-16 08:28:27 51°13.706 2°55.77 -999 0.049516 0.340812 -1.035392
2009-03-16 08:28:32 51°13.708 2°55.771 -999 0.049516 0.340812 -1.035392
2009-03-16 08:28:37 51°13.71 2°55.771 -999 0.049516 0.340796 -1.070216
2009-03-16 08:28:42 51°13.711 2°55.771 -999 0.049516 0.340787 -1.070216
2009-03-16 08:28:47 51°13.713 2°55.771 -999 0.049516 0.340787 -1.070216
2009-03-16 08:28:52 51°13.713 2°55.771 -999 0.049619 0.341505 -1.070216
2009-03-16 08:28:57 51°13.713 2°55.77 -999 0.049619 0.341488 -1.070216
2009-03-16 08:29:02 51°13.713 2°55.77 -999 0.049619 0.341488 -1.070216
2009-03-16 08:29:07 51°13.713 2°55.769 -999 0.049619 0.341488 -1.070216
2009-03-16 08:29:12 51°13.712 2°55.768 -999 0.049619 0.34148 -1.070216
2009-03-16 08:29:17 51°13.711 2°55.767 -999 0.049619 0.341472 -1.070216
2009-03-16 08:29:22 51°13.71 2°55.767 -999 0.049619 0.341472 -1.070216
2009-03-16 08:29:26 51°13.709 2°55.766 -999 0.049619 0.341456 -1.070216
2009-03-16 08:29:32 51°13.708 2°55.766 -999 0.049619 0.341456 -1.070216
2009-03-16 08:29:37 51°13.708 2°55.765 -999 0.049619 0.341447 -1.035392
2009-03-16 08:29:42 51°13.708 2°55.764 -999 0.049619 0.341431 -1.035392
2009-03-16 08:29:47 51°13.709 2°55.764 -999 0.049619 0.341415 -1.070216
2009-03-16 08:29:52 51°13.71 2°55.763 -999 0.049619 0.341407 -1.070216
2009-03-16 08:29:57 51°13.712 2°55.761 -999 0.049619 0.341398 -1.035392
2009-03-16 08:30:02 51°13.714 2°55.76 -999 0.049619 0.341398 -1.035392
2009-03-16 08:30:07 51°13.716 2°55.758 -999 0.049619 0.341398 -1.070216
2009-03-16 08:30:11 51°13.718 2°55.756 -999 0.049619 0.34139 -1.070216
2009-03-16 08:30:17 51°13.721 2°55.752 -999 0.049619 0.34139 -1.070216
2009-03-16 08:30:22 51°13.724 2°55.749 -999 0.049619 0.34139 -1.070216
2009-03-16 08:30:27 51°13.728 2°55.744 -999 0.049619 0.34139 -1.035392
2009-03-16 08:30:32 51°13.731 2°55.74 -999 0.049619 0.34139 -1.035392
2009-03-16 08:30:37 51°13.735 2°55.734 -999 0.049619 0.341382 -1.070216
2009-03-16 08:30:42 51°13.74 2°55.729 -999 0.049619 0.341374 -1.070216
2009-03-16 08:30:47 51°13.745 2°55.723 -999 0.049619 0.341366 -1.035392
2009-03-16 08:30:52 51°13.75 2°55.716 -999 0.049619 0.341366 -1.035392
2009-03-16 08:30:57 51°13.756 2°55.71 -999 0.049619 0.341349 -1.070216
2009-03-16 08:31:02 51°13.762 2°55.702 -999 0.049619 0.341349 -1.070216
2009-03-16 08:31:07 51°13.769 2°55.695 -999 0.049619 0.341341 -1.070216
2009-03-16 08:31:12 51°13.777 2°55.686 -999 0.049619 0.341333 -1.070216
2009-03-16 08:31:17 51°13.785 2°55.678 -999 0.049619 0.341325 -1.070216
2009-03-16 08:31:22 51°13.793 2°55.67 -999 0.049619 0.341317 -1.070216
2009-03-16 08:31:27 51°13.803 2°55.662 -999 0.049619 0.3413 -1.070216
2009-03-16 08:31:32 51°13.812 2°55.654 -999 0.049619 0.3413 -1.070216
2009-03-16 08:31:37 51°13.822 2°55.646 -999 0.049619 0.341292 -1.035392
2009-03-16 08:31:42 51°13.832 2°55.637 -999 0.049619 0.3413 -1.035392
2009-03-16 08:31:47 51°13.842 2°55.629 -999 0.049619 0.3413 -1.070216
2009-03-16 08:31:52 51°13.853 2°55.62 -999 0.049619 0.341292 -1.070216
2009-03-16 08:31:57 51°13.864 2°55.612 -999 0.049619 0.341276 -1.070216
2009-03-16 08:32:02 51°13.875 2°55.603 -999 0.049619 0.341276 -1.070216
2009-03-16 08:32:07 51°13.887 2°55.595 -999 0.049619 0.341284 -1.070216
2009-03-16 08:32:12 51°13.899 2°55.586 -999 0.049619 0.341276 -1.070216
2009-03-16 08:32:17 51°13.911 2°55.577 -999 0.049619 0.341276 -1.070216
2009-03-16 08:32:22 51°13.922 2°55.568 -999 0.049619 0.341259 -1.070216
2009-03-16 08:32:27 51°13.934 2°55.558 -999 0.049619 0.341227 -1.070216
2009-03-16 08:32:32 51°13.945 2°55.549 -999 0.049619 0.341227 -1.070216
2009-03-16 08:32:37 51°13.957 2°55.539 -999 0.049619 0.341219 -1.070216
2009-03-16 08:32:42 51°13.969 2°55.531 -999 0.049619 0.341227 -1.070216
2009-03-16 08:32:47 51°13.981 2°55.522 -999 0.049619 0.341219 -1.070216
2009-03-16 08:32:52 51°13.993 2°55.512 -999 0.049619 0.341219 -1.070216
2009-03-16 08:32:58 51°14.008 2°55.502 -999 0.049619 0.341227 -1.070216
2009-03-16 08:33:03 51°14.02 2°55.493 -999 0.049619 0.341227 -1.070216
2009-03-16 08:33:08 51°14.032 2°55.484 -999 0.049619 0.341235 -1.070216
2009-03-16 08:33:12 51°14.042 2°55.477 -999 0.049619 0.341227 -1.070216
2009-03-16 08:33:17 51°14.054 2°55.468 -999 0.049619 0.341227 -1.070216
2009-03-16 08:33:22 51°14.066 2°55.459 -999 0.049619 0.34121 -1.070216
2009-03-16 08:33:27 51°14.078 2°55.45 -999 0.049619 0.341202 -1.070216
2009-03-16 08:33:31 51°14.088 2°55.442 -999 0.049619 0.341202 -1.070216
2009-03-16 08:33:37 51°14.102 2°55.431 -999 0.049619 0.341186 -1.070216
2009-03-16 08:33:43 51°14.117 2°55.419 -999 0.049619 0.341186 -1.070216
2009-03-16 08:33:47 51°14.126 2°55.411 -999 0.049619 0.34117 -1.070216
2009-03-16 08:33:52 51°14.138 2°55.4 -999 0.049619 0.341161 -1.070216
2009-03-16 08:33:57 51°14.15 2°55.389 -999 0.049619 0.341153 -1.070216
2009-03-16 08:34:02 51°14.162 2°55.379 -999 0.049619 0.341153 -1.070216
2009-03-16 08:34:07 51°14.174 2°55.368 -999 0.049619 0.341137 -1.070216
2009-03-16 08:34:11 51°14.183 2°55.359 -999 0.049619 0.341121 -1.070216
2009-03-16 08:34:17 51°14.197 2°55.345 -999 0.049619 0.341104 -1.070216
2009-03-16 08:34:22 51°14.208 2°55.333 -999 0.049619 0.341096 -1.070216
2009-03-16 08:34:27 51°14.22 2°55.32 -999 0.049619 0.34108 -1.070216
2009-03-16 08:34:32 51°14.231 2°55.306 -999 0.049619 0.34108 -1.070216
2009-03-16 08:34:37 51°14.242 2°55.292 -999 0.049619 0.341064 -1.070216
2009-03-16 08:34:42 51°14.252 2°55.277 -999 0.049619 0.341055 -1.070216
2009-03-16 08:34:47 51°14.263 2°55.262 -999 0.049619 0.341047 -1.070216
2009-03-16 08:34:51 51°14.271 2°55.249 -999 0.049619 0.341031 -1.070216
2009-03-16 08:34:57 51°14.283 2°55.23 -999 0.049619 0.341015 -1.070216
2009-03-16 08:35:03 51°14.295 2°55.209 -999 0.049619 0.341015 -1.070216
2009-03-16 08:35:07 51°14.302 2°55.195 -999 0.049619 0.340998 -1.070216
2009-03-16 08:35:11 51°14.31 2°55.181 -999 0.049619 0.340982 -1.070216
2009-03-16 08:35:17 51°14.321 2°55.16 -999 0.049619 0.340974 -1.070216
2009-03-16 08:35:22 51°14.331 2°55.142 -999 0.049619 0.340958 -1.070216
2009-03-16 08:35:27 51°14.34 2°55.124 -999 0.049619 0.340941 -1.070216
2009-03-16 08:35:32 51°14.35 2°55.106 -999 0.049619 0.340941 -1.070216
2009-03-16 08:35:37 51°14.359 2°55.087 -999 0.049619 0.340917 -1.070216
2009-03-16 08:35:42 51°14.368 2°55.068 -999 0.049619 0.340909 -1.070216
2009-03-16 08:35:47 51°14.377 2°55.05 -999 0.049619 0.340892 -1.070216
2009-03-16 08:35:51 51°14.385 2°55.035 -999 0.049619 0.340876 -1.070216
2009-03-16 08:35:57 51°14.397 2°55.013 -999 0.049619 0.34086 -1.070216
2009-03-16 08:36:02 51°14.406 2°54.994 -999 0.049619 0.34086 -1.070216
2009-03-16 08:36:07 51°14.415 2°54.975 -999 0.049619 0.340844 -1.070216
2009-03-16 08:36:11 51°14.421 2°54.959 -999 0.049722 0.341559 -0.896096
2009-03-16 08:36:17 51°14.431 2°54.934 -999 0.049619 0.340811 -1.348809
2009-03-16 08:36:22 51°14.439 2°54.914 -999 0.049619 0.340795 -1.383633
2009-03-16 08:36:27 51°14.447 2°54.893 -999 0.049722 0.341478 -1.383633
2009-03-16 08:36:31 51°14.453 2°54.875 -999 0.049722 0.341478 -1.383633
2009-03-16 08:36:37 51°14.461 2°54.849 -999 0.215841 1.551663 -0.58268
2009-03-16 08:36:42 51°14.467 2°54.827 -999 0.233958 1.692798 -0.652328
2009-03-16 08:36:47 51°14.474 2°54.804 -999 0.605985 4.312764 3.700679
2009-03-16 08:36:51 51°14.48 2°54.786 -999 1.266314 9.27171 12.789757
2009-03-16 08:36:57 51°14.488 2°54.759 -999 1.170929 8.451064 8.43675
2009-03-16 08:37:02 51°14.495 2°54.737 -999 1.170929 8.451064 8.43675
2009-03-16 08:37:07 51°14.502 2°54.714 -999 1.461987 10.946335 16.864171
2009-03-16 08:37:11 51°14.508 2°54.696 -999 2.351367 18.914522 25.709481
2009-03-16 08:37:16 51°14.515 2°54.673 -999 3.203555 27.458177 29.888367
2009-03-16 08:37:21 51°14.522 2°54.651 -999 3.354441 29.531535 30.828617
2009-03-16 08:37:27 51°14.53 2°54.623 -999 3.383657 30.406866 31.908163
2009-03-16 08:37:32 51°14.536 2°54.6 -999 3.383657 30.406866 31.908163
2009-03-16 08:37:37 51°14.543 2°54.576 -999 3.395678 30.955569 32.883236
2009-03-16 08:37:42 51°14.549 2°54.553 -999 3.391953 31.225109 32.56982
2009-03-16 08:37:47 51°14.556 2°54.529 -999 3.38771 31.462281 32.395699
2009-03-16 08:37:52 51°14.562 2°54.505 -999 3.387401 31.628835 32.395699
2009-03-16 08:37:57 51°14.569 2°54.482 -999 3.388025 31.795561 32.500171
2009-03-16 08:38:02 51°14.575 2°54.458 -999 3.388025 31.795561 32.500171
2009-03-16 08:38:07 51°14.582 2°54.434 -999 3.38668 31.90882 32.395699
2009-03-16 08:38:12 51°14.588 2°54.41 -999 3.394863 32.065639 32.465347
2009-03-16 08:38:16 51°14.594 2°54.39 -999 3.398075 32.166805 32.291227
2009-03-16 08:38:21 51°14.6 2°54.367 -999 3.403047 32.2517 32.291227
2009-03-16 08:38:27 51°14.608 2°54.338 -999 3.400562 32.259108 32.117107
2009-03-16 08:38:32 51°14.615 2°54.314 -999 3.400562 32.259108 32.117107
2009-03-16 08:38:37 51°14.621 2°54.29 -999 3.41206 32.425752 32.151931
2009-03-16 08:38:42 51°14.628 2°54.266 -999 3.417758 32.521461 32.186755
2009-03-16 08:38:47 51°14.634 2°54.242 -999 3.424077 32.622271 32.082283
2009-03-16 08:38:52 51°14.641 2°54.218 -999 3.426874 32.678329 31.699218
2009-03-16 08:38:56 51°14.647 2°54.199 -999 3.429567 32.731673 31.385802
2009-03-16 08:39:02 51°14.658 2°54.174 -999 3.429567 32.731673 31.385802
2009-03-16 08:39:07 51°14.668 2°54.155 -999 3.431432 32.771164 30.967913
2009-03-16 08:39:12 51°14.679 2°54.139 -999 3.434851 32.832357 30.271432
2009-03-16 08:39:17 51°14.691 2°54.125 -999 3.440756 32.90797 29.540127
2009-03-16 08:39:22 51°14.704 2°54.114 -999 3.440652 32.917233 29.261534
2009-03-16 08:39:27 51°14.717 2°54.105 -999 3.440652 32.924146 29.261534
2009-03-16 08:39:32 51°14.73 2°54.098 -999 3.440652 32.924146 29.261534
2009-03-16 08:39:37 51°14.743 2°54.094 -999 3.442724 32.953945 29.470479
2009-03-16 08:39:42 51°14.756 2°54.093 -999 3.445832 32.997375 29.05259
2009-03-16 08:39:47 51°14.769 2°54.094 -999 3.443243 32.9837 28.843646
2009-03-16 08:39:52 51°14.781 2°54.098 -999 3.445522 33.032248 28.70435
2009-03-16 08:39:57 51°14.793 2°54.104 -999 3.446972 33.058991 28.356109
2009-03-16 08:40:02 51°14.803 2°54.114 -999 3.446972 33.058991 28.356109
2009-03-16 08:40:07 51°14.813 2°54.125 -999 3.449873 33.096851 27.798924
2009-03-16 08:40:12 51°14.821 2°54.139 -999 3.453706 33.152522 27.520332
2009-03-16 08:40:17 51°14.826 2°54.155 -999 3.453603 33.161896 27.067619
2009-03-16 08:40:22 51°14.831 2°54.172 -999 3.451531 33.145041 26.405962
2009-03-16 08:40:27 51°14.833 2°54.19 -999 3.453499 33.17215 26.440786
2009-03-16 08:40:32 51°14.834 2°54.208 -999 3.453499 33.17215 26.440786
2009-03-16 08:40:37 51°14.832 2°54.226 -999 3.461062 33.261599 26.545258
2009-03-16 08:40:41 51°14.83 2°54.241 -999 3.460026 33.258431 26.47561
2009-03-16 08:40:47 51°14.824 2°54.261 -999 3.460337 33.271399 26.684555
2009-03-16 08:40:52 51°14.818 2°54.276 -999 3.4564 33.24076 26.789027
2009-03-16 08:40:57 51°14.809 2°54.29 -999 3.453707 33.218128 26.30149
2009-03-16 08:41:02 51°14.8 2°54.303 -999 3.453707 33.218128 26.30149
2009-03-16 08:41:07 51°14.789 2°54.312 -999 3.455261 33.236481 26.057722
2009-03-16 08:41:12 51°14.777 2°54.321 -999 3.462512 33.315721 25.779129
2009-03-16 08:41:17 51°14.763 2°54.328 -999 3.463859 33.331874 25.779129
2009-03-16 08:41:22 51°14.75 2°54.333 -999 3.463963 33.340021 25.570185
2009-03-16 08:41:27 51°14.735 2°54.335 -999 3.46417 33.351041 25.117472
2009-03-16 08:41:32 51°14.72 2°54.336 -999 3.46417 33.351041 25.117472
2009-03-16 08:41:36 51°14.707 2°54.334 -999 3.464377 33.364711 24.943352
2009-03-16 08:41:42 51°14.689 2°54.33 -999 3.461166 33.342691 24.699583
2009-03-16 08:41:47 51°14.673 2°54.324 -999 3.461684 33.357932 25.256768
2009-03-16 08:41:52 51°14.657 2°54.317 -999 3.453604 33.275859 25.605009
2009-03-16 08:41:56 51°14.644 2°54.309 -999 3.454433 33.286488 25.674657
2009-03-16 08:42:02 51°14.626 2°54.297 -999 3.454433 33.286488 25.674657
2009-03-16 08:42:07 51°14.61 2°54.284 -999 3.449875 33.239471 25.396065
2009-03-16 08:42:12 51°14.595 2°54.269 -999 3.45464 33.295749 25.013
2009-03-16 08:42:17 51°14.581 2°54.253 -999 3.452983 33.282409 24.873704
2009-03-16 08:42:22 51°14.567 2°54.236 -999 3.455572 33.315422 24.769232
2009-03-16 08:42:27 51°14.553 2°54.219 -999 3.455055 33.316046 24.804056
2009-03-16 08:42:32 51°14.539 2°54.2 -999 3.455055 33.316046 24.804056
2009-03-16 08:42:37 51°14.526 2°54.182 -999 3.453811 33.306258 24.664759
2009-03-16 08:42:42 51°14.511 2°54.165 -999 3.450911 33.275194 25.082648
2009-03-16 08:42:47 51°14.497 2°54.148 -999 3.45174 33.28495 25.152296
2009-03-16 08:42:52 51°14.482 2°54.131 -999 3.454951 33.321108 25.535361
2009-03-16 08:42:57 51°14.468 2°54.113 -999 3.447907 33.247425 26.022897
2009-03-16 08:43:02 51°14.454 2°54.095 -999 3.447907 33.247425 26.022897
2009-03-16 08:43:07 51°14.441 2°54.077 -999 3.454848 33.327056 26.197018
2009-03-16 08:43:13 51°14.424 2°54.055 -999 3.456298 33.347892 26.614906
2009-03-16 08:43:18 51°14.41 2°54.038 -999 3.451947 33.304798 26.997971
2009-03-16 08:43:22 51°14.398 2°54.024 -999 3.454537 33.334316 27.206915
2009-03-16 08:43:27 51°14.384 2°54.008 -999 3.44915 33.277473 27.7641
2009-03-16 08:43:32 51°14.368 2°53.991 -999 3.44915 33.277473 27.7641
2009-03-16 08:43:37 51°14.354 2°53.974 -999 3.450186 33.288573 28.112341
2009-03-16 08:43:42 51°14.34 2°53.956 -999 3.452465 33.31476 28.565053
2009-03-16 08:43:47 51°14.325 2°53.939 -999 3.454641 33.340724 29.157062
2009-03-16 08:43:52 51°14.311 2°53.92 -999 3.451222 33.307613 29.331183
2009-03-16 08:43:57 51°14.297 2°53.902 -999 3.453605 33.336685 29.853543
2009-03-16 08:44:02 51°14.283 2°53.884 -999 3.453605 33.336685 29.853543
2009-03-16 08:44:07 51°14.27 2°53.864 -999 3.453915 33.33825 30.097312
2009-03-16 08:44:12 51°14.257 2°53.843 -999 3.456091 33.359805 30.34108
2009-03-16 08:44:17 51°14.244 2°53.823 -999 3.453294 33.327172 30.828617
2009-03-16 08:44:21 51°14.234 2°53.806 -999 3.453294 33.328938 30.863441
2009-03-16 08:44:27 51°14.219 2°53.782 -999 3.453708 33.336029 31.176857
2009-03-16 08:44:32 51°14.205 2°53.762 -999 3.453708 33.336029 31.176857
2009-03-16 08:44:37 51°14.193 2°53.739 -999 3.450911 33.305164 31.420626
2009-03-16 08:44:41 51°14.184 2°53.722 -999 3.4477 33.27339 31.734042
2009-03-16 08:44:47 51°14.17 2°53.694 -999 3.451636 33.319116 32.256403
2009-03-16 08:44:52 51°14.159 2°53.671 -999 3.451015 33.3151 32.534996
2009-03-16 08:44:57 51°14.149 2°53.648 -999 3.44915 33.294227 32.430523
2009-03-16 08:45:02 51°14.137 2°53.625 -999 3.44915 33.294227 32.430523
2009-03-16 08:45:07 51°14.127 2°53.601 -999 3.445835 33.25693 32.639468
2009-03-16 08:45:12 51°14.115 2°53.579 -999 3.448425 33.283808 32.91806
2009-03-16 08:45:17 51°14.105 2°53.555 -999 3.445421 33.25337 33.09218
2009-03-16 08:45:21 51°14.096 2°53.536 -999 3.447286 33.276002 33.370773
2009-03-16 08:45:27 51°14.083 2°53.508 -999 3.446975 33.276198 33.370773
2009-03-16 08:45:33 51°14.07 2°53.48 -999 3.446975 33.276198 33.370773
2009-03-16 08:45:37 51°14.061 2°53.462 -999 3.444282 33.249968 33.684189
2009-03-16 08:45:41 51°14.053 2°53.442 -999 3.44221 33.233043 33.893134
2009-03-16 08:45:47 51°14.04 2°53.414 -999 3.441795 33.230362 34.241374
2009-03-16 08:45:52 51°14.029 2°53.39 -999 3.441381 33.229444 34.345846
2009-03-16 08:45:57 51°14.018 2°53.367 -999 3.436823 33.182336 34.868207
2009-03-16 08:46:02 51°14.007 2°53.343 -999 3.436823 33.182336 34.868207
2009-03-16 08:46:07 51°13.997 2°53.319 -999 3.437652 33.193861 34.763735
2009-03-16 08:46:12 51°13.986 2°53.295 -999 3.442003 33.241396 35.181624
2009-03-16 08:46:17 51°13.975 2°53.272 -999 3.441692 33.238945 35.425392
2009-03-16 08:46:21 51°13.967 2°53.252 -999 3.442521 33.249596 35.49504
2009-03-16 08:46:27 51°13.954 2°53.225 -999 3.440863 33.232701 35.66916
2009-03-16 08:46:32 51°13.943 2°53.2 -999 3.440863 33.232701 35.66916
2009-03-16 08:46:37 51°13.932 2°53.177 -999 3.442417 33.252013 35.738808
2009-03-16 08:46:41 51°13.923 2°53.158 -999 3.441692 33.245116 35.808457
2009-03-16 08:46:47 51°13.91 2°53.13 -999 3.439102 33.21822 35.773633
2009-03-16 08:46:52 51°13.899 2°53.106 -999 3.442521 33.25577 35.947753
2009-03-16 08:46:57 51°13.888 2°53.083 -999 3.440449 33.234427 35.912929
2009-03-16 08:47:01 51°13.879 2°53.064 -999 3.440449 33.234427 35.912929
2009-03-16 08:47:07 51°13.866 2°53.036 -999 3.441692 33.249526 36.087049
2009-03-16 08:47:12 51°13.855 2°53.012 -999 3.443557 33.272179 36.121873
2009-03-16 08:47:17 51°13.845 2°52.988 -999 3.444075 33.27862 35.843281
2009-03-16 08:47:21 51°13.836 2°52.969 -999 3.448115 33.320207 35.947753
2009-03-16 08:47:27 51°13.823 2°52.94 -999 3.449151 33.332209 35.808457
2009-03-16 08:47:33 51°13.811 2°52.91 -999 3.449151 33.332209 35.808457
2009-03-16 08:47:37 51°13.802 2°52.892 -999 3.448218 33.323087 35.843281
2009-03-16 08:47:41 51°13.794 2°52.872 -999 3.449669 33.339537 35.564688
2009-03-16 08:47:47 51°13.781 2°52.843 -999 3.449669 33.343076 35.66916
2009-03-16 08:47:52 51°13.771 2°52.819 -999 3.450083 33.351065 35.564688
2009-03-16 08:47:57 51°13.76 2°52.795 -999 3.450083 33.352835 35.355744
2009-03-16 08:48:02 51°13.75 2°52.771 -999 3.450083 33.352835 35.355744
2009-03-16 08:48:07 51°13.739 2°52.747 -999 3.451119 33.364843 35.425392
2009-03-16 08:48:12 51°13.728 2°52.723 -999 3.451741 33.372403 35.390568
2009-03-16 08:48:17 51°13.718 2°52.699 -999 3.452362 33.381735 35.216448
2009-03-16 08:48:21 51°13.709 2°52.68 -999 3.450083 33.358147 35.1468
2009-03-16 08:48:27 51°13.696 2°52.652 -999 3.452259 33.384168 35.251272
2009-03-16 08:48:32 51°13.686 2°52.628 -999 3.452259 33.384168 35.251272
2009-03-16 08:48:37 51°13.675 2°52.604 -999 3.453295 33.398841 35.216448
2009-03-16 08:48:41 51°13.667 2°52.584 -999 3.453088 33.400163 35.111976
2009-03-16 08:48:47 51°13.654 2°52.556 -999 3.453502 33.408163 35.32092
2009-03-16 08:48:52 51°13.644 2°52.53 -999 3.454952 33.425521 35.007503
2009-03-16 08:48:57 51°13.633 2°52.507 -999 3.454434 33.421731 35.111976
2009-03-16 08:49:02 51°13.623 2°52.482 -999 3.454434 33.421731 35.111976
2009-03-16 08:49:07 51°13.613 2°52.457 -999 3.455056 33.42841 34.972679
2009-03-16 08:49:12 51°13.603 2°52.433 -999 3.454538 33.426396 34.903031
2009-03-16 08:49:17 51°13.593 2°52.408 -999 3.455781 33.440644 34.937855
2009-03-16 08:49:21 51°13.585 2°52.388 -999 3.455263 33.435965 35.077151
2009-03-16 08:49:27 51°13.573 2°52.358 -999 3.45661 33.451329 35.111976
2009-03-16 08:49:32 51°13.563 2°52.334 -999 3.45661 33.451329 35.111976
2009-03-16 08:49:37 51°13.553 2°52.309 -999 3.455781 33.441533 35.111976
2009-03-16 08:49:41 51°13.545 2°52.289 -999 3.455885 33.442646 35.077151
2009-03-16 08:49:47 51°13.532 2°52.26 -999 3.455988 33.444648 35.251272
2009-03-16 08:49:53 51°13.52 2°52.23 -999 3.456506 33.451993 35.181624
2009-03-16 08:49:57 51°13.512 2°52.211 -999 3.457024 33.45845 35.042327
2009-03-16 08:50:01 51°13.504 2°52.19 -999 3.457024 33.45845 35.042327
2009-03-16 08:50:07 51°13.492 2°52.161 -999 3.456817 33.456223 35.216448
2009-03-16 08:50:13 51°13.479 2°52.132 -999 3.45661 33.453107 35.077151
2009-03-16 08:50:17 51°13.472 2°52.112 -999 3.454331 33.428609 35.007503
2009-03-16 08:50:21 51°13.464 2°52.092 -999 3.455678 33.442196 35.042327
2009-03-16 08:50:27 51°13.453 2°52.062 -999 3.456299 33.447989 35.077151
2009-03-16 08:50:32 51°13.444 2°52.037 -999 3.456299 33.447989 35.077151
2009-03-16 08:50:37 51°13.435 2°52.011 -999 3.45257 33.407906 35.077151
2009-03-16 08:50:41 51°13.428 2°51.991 -999 3.452673 33.409019 35.1468
2009-03-16 08:50:47 51°13.418 2°51.963 -999 3.45288 33.410358 35.286096
2009-03-16 08:50:52 51°13.41 2°51.941 -999 3.45516 33.433076 35.286096
2009-03-16 08:50:57 51°13.402 2°51.92 -999 3.455677 33.436866 35.32092
2009-03-16 08:51:02 51°13.395 2°51.899 -999 3.455677 33.436866 35.32092
2009-03-16 08:51:07 51°13.39 2°51.878 -999 3.45288 33.406808 35.49504
2009-03-16 08:51:12 51°13.385 2°51.857 -999 3.453813 33.416827 35.703984
2009-03-16 08:51:17 51°13.381 2°51.837 -999 3.45257 33.401694 35.703984
2009-03-16 08:51:21 51°13.379 2°51.821 -999 3.454124 33.417504 35.738808
2009-03-16 08:51:27 51°13.376 2°51.797 -999 3.453916 33.416165 35.66916
2009-03-16 08:51:32 51°13.375 2°51.778 -999 3.453916 33.416165 35.66916
2009-03-16 08:51:37 51°13.374 2°51.759 -999 3.454227 33.418617 35.634336
2009-03-16 08:51:41 51°13.373 2°51.744 -999 3.45257 33.400807 35.773633
2009-03-16 08:51:47 51°13.372 2°51.722 -999 3.453191 33.406598 35.66916
2009-03-16 08:51:52 51°13.371 2°51.703 -999 3.452259 33.396581 35.738808
2009-03-16 08:51:57 51°13.37 2°51.685 -999 3.456713 33.444446 35.66916
2009-03-16 08:52:01 51°13.369 2°51.67 -999 3.456713 33.444446 35.66916
2009-03-16 08:52:07 51°13.367 2°51.649 -999 3.454124 33.417504 35.878105
2009-03-16 08:52:12 51°13.366 2°51.63 -999 3.45661 33.445109 35.773633
2009-03-16 08:52:17 51°13.365 2°51.612 -999 3.457542 33.453352 35.66916
2009-03-16 08:52:22 51°13.364 2°51.594 -999 3.457231 33.449124 35.773633
2009-03-16 08:52:27 51°13.362 2°51.576 -999 3.456506 33.439555 35.808457
2009-03-16 08:52:32 51°13.361 2°51.558 -999 3.456506 33.439555 35.808457
2009-03-16 08:52:37 51°13.36 2°51.54 -999 3.454952 33.423746 35.912929
2009-03-16 08:52:42 51°13.359 2°51.522 -999 3.456713 33.44267 35.773633
2009-03-16 08:52:47 51°13.358 2°51.504 -999 3.45661 33.441556 35.599512
2009-03-16 08:52:52 51°13.357 2°51.486 -999 3.457956 33.45514 35.703984
2009-03-16 08:52:57 51°13.356 2°51.468 -999 3.456092 33.434214 35.564688
2009-03-16 08:53:02 51°13.355 2°51.45 -999 3.456092 33.434214 35.564688
2009-03-16 08:53:07 51°13.354 2°51.432 -999 3.45806 33.455365 35.529864
2009-03-16 08:53:12 51°13.353 2°51.414 -999 3.457335 33.447572 35.390568
2009-03-16 08:53:17 51°13.352 2°51.396 -999 3.458578 33.461819 35.286096
2009-03-16 08:53:22 51°13.353 2°51.378 -999 3.456713 33.441781 35.251272
2009-03-16 08:53:27 51°13.353 2°51.361 -999 3.457024 33.445121 35.007503
2009-03-16 08:53:32 51°13.356 2°51.345 -999 3.457024 33.445121 35.007503
2009-03-16 08:53:37 51°13.358 2°51.33 -999 3.457853 33.454915 34.972679
2009-03-16 08:53:41 51°13.362 2°51.319 -999 3.45806 33.457142 34.833383
2009-03-16 08:53:47 51°13.366 2°51.303 -999 3.457646 33.450912 34.589615
2009-03-16 08:53:52 51°13.37 2°51.29 -999 3.457542 33.448022 34.485143
2009-03-16 08:53:57 51°13.374 2°51.278 -999 3.45806 33.450923 34.38067
2009-03-16 08:54:02 51°13.378 2°51.267 -999 3.45806 33.450923 34.38067
2009-03-16 08:54:07 51°13.381 2°51.256 -999 3.458785 33.456049 34.067254
2009-03-16 08:54:12 51°13.385 2°51.246 -999 3.458682 33.454936 34.067254
2009-03-16 08:54:17 51°13.388 2°51.236 -999 3.457542 33.443581 33.85831
2009-03-16 08:54:22 51°13.392 2°51.227 -999 3.451948 33.383489 33.510069
2009-03-16 08:54:27 51°13.395 2°51.218 -999 3.452259 33.38594 33.057356
2009-03-16 08:54:32 51°13.398 2°51.21 -999 3.452259 33.38594 33.057356
2009-03-16 08:54:37 51°13.401 2°51.202 -999 3.452673 33.388618 33.057356
2009-03-16 08:54:42 51°13.405 2°51.194 -999 3.450705 33.365707 32.778764
2009-03-16 08:54:47 51°13.408 2°51.187 -999 3.44884 33.344799 32.604644
2009-03-16 08:54:52 51°13.411 2°51.18 -999 3.449358 33.35036 32.151931
2009-03-16 08:54:57 51°13.414 2°51.174 -999 3.447804 33.332791 32.012635
2009-03-16 08:55:02 51°13.417 2°51.168 -999 3.447804 33.332791 32.012635
2009-03-16 08:55:07 51°13.419 2°51.162 -999 3.448736 33.341916 31.942987
2009-03-16 08:55:12 51°13.422 2°51.157 -999 3.447286 33.32546 31.664394
2009-03-16 08:55:17 51°13.425 2°51.152 -999 3.446457 33.316563 31.490274
2009-03-16 08:55:22 51°13.428 2°51.147 -999 3.443557 33.284542 31.594746
2009-03-16 08:55:27 51°13.43 2°51.142 -999 3.446354 33.313683 31.350978
2009-03-16 08:55:33 51°13.433 2°51.136 -999 3.446354 33.313683 31.350978
2009-03-16 08:55:37 51°13.435 2°51.133 -999 3.44625 33.313455 31.316154
2009-03-16 08:55:42 51°13.438 2°51.129 -999 3.446043 33.312115 31.002737
2009-03-16 08:55:47 51°13.44 2°51.125 -999 3.442728 33.275647 31.107209
2009-03-16 08:55:52 51°13.442 2°51.12 -999 3.442935 33.277871 31.037561
2009-03-16 08:55:57 51°13.444 2°51.117 -999 3.442935 33.276988 31.037561
2009-03-16 08:56:02 51°13.447 2°51.113 -999 3.442935 33.276988 31.037561
2009-03-16 08:56:07 51°13.449 2°51.11 -999 3.44366 33.283004 31.037561
2009-03-16 08:56:12 51°13.451 2°51.106 -999 3.442832 33.274993 31.176857
2009-03-16 08:56:17 51°13.453 2°51.103 -999 3.441796 33.262992 30.758969
2009-03-16 08:56:22 51°13.455 2°51.099 -999 3.443246 33.27944 30.654497
2009-03-16 08:56:26 51°13.456 2°51.097 -999 3.440242 33.248081 30.619673
2009-03-16 08:56:32 51°13.459 2°51.093 -999 3.440242 33.248081 30.619673
2009-03-16 08:56:37 51°13.46 2°51.091 -999 3.439931 33.243863 30.550024
2009-03-16 08:56:42 51°13.462 2°51.088 -999 3.44076 33.251874 30.5152
2009-03-16 08:56:46 51°13.463 2°51.086 -999 3.44076 33.25011 30.34108
2009-03-16 08:56:52 51°13.465 2°51.083 -999 3.441381 33.25678 30.306256
2009-03-16 08:56:57 51°13.467 2°51.08 -999 3.438377 33.225425 30.16696
2009-03-16 08:57:02 51°13.468 2°51.077 -999 3.438377 33.225425 30.16696
2009-03-16 08:57:07 51°13.47 2°51.075 -999 3.440346 33.246545 30.236608
2009-03-16 08:57:12 51°13.47 2°51.072 -999 3.441071 33.253445 30.16696
2009-03-16 08:57:17 51°13.471 2°51.069 -999 3.439517 33.235888 30.236608
2009-03-16 08:57:22 51°13.471 2°51.067 -999 3.439517 33.235888 30.132136
2009-03-16 08:57:26 51°13.472 2°51.065 -999 3.434959 33.186105 30.201784
2009-03-16 08:57:32 51°13.472 2°51.062 -999 3.434959 33.186105 30.201784
2009-03-16 08:57:37 51°13.472 2°51.059 -999 3.438481 33.223891 30.062488
2009-03-16 08:57:42 51°13.472 2°51.057 -999 3.43672 33.204997 30.097312
2009-03-16 08:57:46 51°13.472 2°51.054 -999 3.43672 33.204116 29.958016
2009-03-16 08:57:52 51°13.473 2°51.051 -999 3.437652 33.214119 30.236608
2009-03-16 08:57:57 51°13.473 2°51.049 -999 3.437652 33.214119 29.923192
2009-03-16 08:58:02 51°13.473 2°51.047 -999 3.437652 33.214119 29.923192
2009-03-16 08:58:06 51°13.473 2°51.045 -999 3.436098 33.197448 30.201784
2009-03-16 08:58:12 51°13.473 2°51.042 -999 3.436927 33.206339 30.132136
2009-03-16 08:58:17 51°13.473 2°51.039 -999 3.435477 33.1899 30.097312
2009-03-16 08:58:22 51°13.474 2°51.037 -999 3.437031 33.206569 30.306256
2009-03-16 08:58:27 51°13.474 2°51.034 -999 3.437445 33.211015 30.16696
2009-03-16 08:58:32 51°13.474 2°51.032 -999 3.437445 33.211015 30.16696
2009-03-16 08:58:37 51°13.474 2°51.03 -999 3.437445 33.211896 30.201784
2009-03-16 08:58:42 51°13.474 2°51.027 -999 3.439206 33.231672 30.271432
2009-03-16 08:58:46 51°13.475 2°51.025 -999 3.438999 33.229449 30.271432
2009-03-16 08:58:52 51°13.475 2°51.023 -999 3.437134 33.209443 30.34108
2009-03-16 08:58:57 51°13.475 2°51.02 -999 3.437549 33.213889 30.201784
2009-03-16 08:59:02 51°13.475 2°51.018 -999 3.437549 33.213889 30.201784
2009-03-16 08:59:07 51°13.475 2°51.015 -999 3.433716 33.17277 30.201784
2009-03-16 08:59:12 51°13.475 2°51.012 -999 3.437238 33.210554 30.201784
2009-03-16 08:59:17 51°13.475 2°51.01 -999 3.437652 33.215881 30.236608
2009-03-16 08:59:22 51°13.475 2°51.008 -999 3.43527 33.19032 30.062488
2009-03-16 08:59:27 51°13.475 2°51.005 -999 3.434026 33.176104 29.923192
2009-03-16 08:59:32 51°13.475 2°51.003 -999 3.434026 33.176104 29.923192
2009-03-16 08:59:37 51°13.475 2°51 -999 3.438067 33.220327 30.132136
2009-03-16 08:59:42 51°13.475 2°50.998 -999 3.436409 33.203426 30.132136
2009-03-16 08:59:47 51°13.475 2°50.995 -999 3.435788 33.195876 30.236608
2009-03-16 08:59:52 51°13.475 2°50.993 -999 3.433716 33.17277 30.097312
2009-03-16 08:59:57 51°13.475 2°50.991 -999 3.435995 33.198099 30.271432
2009-03-16 09:00:02 51°13.476 2°50.988 -999 3.435995 33.198099 30.271432
2009-03-16 09:00:07 51°13.476 2°50.986 -999 3.435684 33.195646 30.236608
2009-03-16 09:00:12 51°13.476 2°50.983 -999 3.437031 33.210975 30.236608
2009-03-16 09:00:17 51°13.476 2°50.981 -999 3.435062 33.189858 30.236608
2009-03-16 09:00:22 51°13.476 2°50.979 -999 3.435995 33.200742 30.201784
2009-03-16 09:00:26 51°13.476 2°50.977 -999 3.434441 33.184071 30.34108
2009-03-16 09:00:32 51°13.476 2°50.974 -999 3.434441 33.184071 30.34108
2009-03-16 09:00:37 51°13.475 2°50.971 -999 3.435062 33.19162 30.132136
2009-03-16 09:00:42 51°13.475 2°50.969 -999 3.436098 33.201854 30.062488
2009-03-16 09:00:46 51°13.475 2°50.967 -999 3.436927 33.211627 30.201784
2009-03-16 09:00:52 51°13.475 2°50.964 -999 3.437238 33.21408 30.062488
2009-03-16 09:00:57 51°13.475 2°50.961 -999 3.43558 33.195415 29.923192
2009-03-16 09:01:02 51°13.475 2°50.959 -999 3.43558 33.195415 29.923192
2009-03-16 09:01:07 51°13.475 2°50.957 -999 3.436927 33.209864 29.818719
2009-03-16 09:01:12 51°13.475 2°50.954 -999 3.434027 33.178745 29.749071
2009-03-16 09:01:17 51°13.475 2°50.952 -999 3.436927 33.210745 29.714247
2009-03-16 09:01:22 51°13.475 2°50.949 -999 3.43672 33.209404 29.540127
2009-03-16 09:01:27 51°13.475 2°50.947 -999 3.435891 33.200512 29.679423
2009-03-16 09:01:32 51°13.475 2°50.944 -999 3.435891 33.200512 29.679423
2009-03-16 09:01:37 51°13.475 2°50.942 -999 3.435788 33.200281 29.505303
2009-03-16 09:01:42 51°13.475 2°50.94 -999 3.436927 33.21339 29.400831
2009-03-16 09:01:47 51°13.475 2°50.937 -999 3.435373 33.195836 29.261534
2009-03-16 09:01:52 51°13.475 2°50.935 -999 3.435373 33.195836 29.261534
2009-03-16 09:01:57 51°13.475 2°50.933 -999 3.435684 33.200051 29.331183
2009-03-16 09:02:02 51°13.475 2°50.93 -999 3.435684 33.200051 29.331183
2009-03-16 09:02:07 51°13.475 2°50.928 -999 3.43527 33.195605 29.366007
2009-03-16 09:02:13 51°13.475 2°50.925 -999 3.436306 33.207602 29.331183
2009-03-16 09:02:17 51°13.475 2°50.923 -999 3.434441 33.187594 29.157062
2009-03-16 09:02:22 51°13.475 2°50.921 -999 3.435062 33.194263 29.191886
2009-03-16 09:02:27 51°13.475 2°50.918 -999 3.434959 33.194033 29.087414
2009-03-16 09:02:32 51°13.475 2°50.916 -999 3.434959 33.194033 29.087414
2009-03-16 09:02:37 51°13.475 2°50.914 -999 3.434337 33.186483 29.05259
2009-03-16 09:02:42 51°13.474 2°50.911 -999 3.434855 33.19204 28.948118
2009-03-16 09:02:47 51°13.474 2°50.909 -999 3.439828 33.244516 29.017766
2009-03-16 09:02:52 51°13.474 2°50.907 -999 3.439517 33.241181 28.913294
2009-03-16 09:02:57 51°13.474 2°50.904 -999 3.43931 33.238075 28.948118
2009-03-16 09:03:01 51°13.474 2°50.902 -999 3.43931 33.238075 28.948118
2009-03-16 09:03:07 51°13.473 2°50.9 -999 3.438999 33.233858 28.773998
2009-03-16 09:03:12 51°13.473 2°50.897 -999 3.438584 33.229412 28.87847
2009-03-16 09:03:17 51°13.472 2°50.895 -999 3.438377 33.226307 28.634702
2009-03-16 09:03:22 51°13.472 2°50.893 -999 3.437963 33.221861 28.739174
2009-03-16 09:03:27 51°13.471 2°50.891 -999 3.437652 33.217644 28.634702
2009-03-16 09:03:32 51°13.47 2°50.888 -999 3.437652 33.217644 28.634702
2009-03-16 09:03:37 51°13.469 2°50.886 -999 3.437652 33.216763 28.599877
2009-03-16 09:03:42 51°13.468 2°50.884 -999 3.437549 33.215651 28.599877
2009-03-16 09:03:47 51°13.467 2°50.881 -999 3.437445 33.213659 28.530229
2009-03-16 09:03:52 51°13.466 2°50.879 -999 3.437445 33.212777 28.70435
2009-03-16 09:03:57 51°13.465 2°50.877 -999 3.437549 33.213007 28.669526
2009-03-16 09:04:02 51°13.464 2°50.875 -999 3.437549 33.213007 28.669526
2009-03-16 09:04:07 51°13.463 2°50.873 -999 3.437549 33.213007 28.495405
2009-03-16 09:04:12 51°13.461 2°50.871 -999 3.437549 33.212126 28.565053
2009-03-16 09:04:17 51°13.46 2°50.868 -999 3.437652 33.213237 28.669526
2009-03-16 09:04:22 51°13.458 2°50.866 -999 3.437549 33.212126 28.321285
2009-03-16 09:04:27 51°13.456 2°50.864 -999 3.437756 33.213467 28.565053
2009-03-16 09:04:32 51°13.455 2°50.862 -999 3.437756 33.213467 28.565053
2009-03-16 09:04:37 51°13.453 2°50.859 -999 3.437859 33.214579 28.634702
2009-03-16 09:04:42 51°13.451 2°50.857 -999 3.437859 33.214579 28.565053
2009-03-16 09:04:47 51°13.449 2°50.855 -999 3.437652 33.211475 28.634702
2009-03-16 09:04:52 51°13.448 2°50.853 -999 3.43817 33.21615 28.669526
2009-03-16 09:04:57 51°13.446 2°50.85 -999 3.437963 33.213927 28.70435
2009-03-16 09:05:02 51°13.444 2°50.848 -999 3.437963 33.213927 28.70435
2009-03-16 09:05:07 51°13.442 2°50.845 -999 3.437549 33.210364 28.773998
2009-03-16 09:05:12 51°13.44 2°50.843 -999 3.437859 33.213697 28.739174
2009-03-16 09:05:17 51°13.439 2°50.841 -999 3.437134 33.205037 28.808822
2009-03-16 09:05:21 51°13.437 2°50.839 -999 3.438688 33.222588 28.634702
2009-03-16 09:05:27 51°13.436 2°50.837 -999 3.439206 33.228145 28.70435
2009-03-16 09:05:32 51°13.434 2°50.835 -999 3.439206 33.228145 28.70435
2009-03-16 09:05:37 51°13.432 2°50.832 -999 3.439517 33.231479 28.530229
2009-03-16 09:05:42 51°13.431 2°50.83 -999 3.439827 33.233931 28.460581
2009-03-16 09:05:47 51°13.429 2°50.828 -999 3.440035 33.235272 28.669526
2009-03-16 09:05:52 51°13.428 2°50.826 -999 3.440242 33.236613 28.530229
2009-03-16 09:05:57 51°13.426 2°50.824 -999 3.440449 33.237954 28.390933
2009-03-16 09:06:02 51°13.425 2°50.821 -999 3.440449 33.237954 28.390933
2009-03-16 09:06:07 51°13.423 2°50.819 -999 3.440656 33.241941 28.530229
2009-03-16 09:06:12 51°13.422 2°50.817 -999 3.440863 33.245045 28.495405
2009-03-16 09:06:17 51°13.42 2°50.814 -999 3.441071 33.248151 28.495405
2009-03-16 09:06:22 51°13.418 2°50.812 -999 3.441174 33.249262 28.460581
2009-03-16 09:06:27 51°13.417 2°50.809 -999 3.441485 33.252596 28.599877
2009-03-16 09:06:32 51°13.416 2°50.807 -999 3.441485 33.252596 28.599877
2009-03-16 09:06:37 51°13.414 2°50.805 -999 3.441485 33.253479 28.599877
2009-03-16 09:06:42 51°13.412 2°50.802 -999 3.441278 33.250374 28.599877
2009-03-16 09:06:47 51°13.411 2°50.8 -999 3.43931 33.229256 28.495405
2009-03-16 09:06:52 51°13.409 2°50.797 -999 3.439931 33.235925 28.425757
2009-03-16 09:06:57 51°13.408 2°50.795 -999 3.440553 33.241711 28.286461
2009-03-16 09:07:02 51°13.407 2°50.792 -999 3.440553 33.241711 28.286461
2009-03-16 09:07:06 51°13.405 2°50.79 -999 3.440035 33.234391 27.903396
2009-03-16 09:07:12 51°13.404 2°50.787 -999 3.440553 33.238184 27.729276
2009-03-16 09:07:17 51°13.402 2°50.785 -999 3.441381 33.24531 27.624804
2009-03-16 09:07:22 51°13.401 2°50.782 -999 3.440656 33.237531 27.555156
2009-03-16 09:07:27 51°13.399 2°50.779 -999 3.440863 33.238872 27.659628
2009-03-16 09:07:32 51°13.398 2°50.777 -999 3.440863 33.238872 27.659628
2009-03-16 09:07:37 51°13.396 2°50.774 -999 3.441381 33.243547 27.520332
2009-03-16 09:07:42 51°13.395 2°50.771 -999 3.441278 33.241554 27.450684
2009-03-16 09:07:47 51°13.393 2°50.769 -999 3.442106 33.249561 27.555156
2009-03-16 09:07:53 51°13.392 2°50.766 -999 3.44221 33.249791 27.450684
2009-03-16 09:07:57 51°13.391 2°50.763 -999 3.439413 33.21891 27.520332
2009-03-16 09:08:02 51°13.389 2°50.761 -999 3.439413 33.21891 27.520332
2009-03-16 09:08:07 51°13.388 2°50.758 -999 3.442624 33.252471 27.485508
2009-03-16 09:08:12 51°13.386 2°50.756 -999 3.441278 33.237145 27.41586
2009-03-16 09:08:17 51°13.385 2°50.753 -999 3.440967 33.23205 27.381036
2009-03-16 09:08:22 51°13.384 2°50.75 -999 3.441899 33.242048 27.346212
2009-03-16 09:08:27 51°13.383 2°50.748 -999 3.44221 33.2445 27.485508
2009-03-16 09:08:32 51°13.381 2°50.745 -999 3.44221 33.2445 27.485508
2009-03-16 09:08:37 51°13.38 2°50.742 -999 3.443246 33.253846 27.206915
2009-03-16 09:08:42 51°13.378 2°50.739 -999 3.441485 33.23496 27.241739
2009-03-16 09:08:47 51°13.377 2°50.737 -999 3.44076 33.228065 27.206915
2009-03-16 09:08:52 51°13.376 2°50.734 -999 3.441278 33.232738 27.172091
2009-03-16 09:08:57 51°13.375 2°50.732 -999 3.442313 33.243848 27.102443
2009-03-16 09:09:02 51°13.374 2°50.729 -999 3.442313 33.243848 27.102443
2009-03-16 09:09:07 51°13.373 2°50.726 -999 3.442624 33.247181 27.206915
2009-03-16 09:09:12 51°13.371 2°50.724 -999 3.441485 33.234079 27.311387
2009-03-16 09:09:17 51°13.371 2°50.721 -999 3.44107 33.230517 27.172091
2009-03-16 09:09:21 51°13.37 2°50.72 -999 3.44076 33.227184 27.137267
2009-03-16 09:09:27 51°13.369 2°50.717 -999 3.438584 33.203857 26.928323
2009-03-16 09:09:32 51°13.368 2°50.715 -999 3.438584 33.203857 26.928323
2009-03-16 09:09:37 51°13.368 2°50.712 -999 3.438895 33.205428 26.858675
2009-03-16 09:09:42 51°13.367 2°50.71 -999 3.439413 33.209221 26.823851
2009-03-16 09:09:47 51°13.366 2°50.709 -999 3.438481 33.198345 26.789027
2009-03-16 09:09:52 51°13.366 2°50.706 -999 3.440345 33.218336 26.64973
2009-03-16 09:09:57 51°13.365 2°50.704 -999 3.439102 33.205008 26.64973
2009-03-16 09:10:02 51°13.365 2°50.703 -999 3.439102 33.205008 26.64973
2009-03-16 09:10:06 51°13.364 2°50.701 -999 3.440863 33.222128 26.64973
2009-03-16 09:10:12 51°13.364 2°50.699 -999 3.439309 33.206349 26.64973
2009-03-16 09:10:17 51°13.364 2°50.698 -999 3.437445 33.1846 26.719379
2009-03-16 09:10:22 51°13.364 2°50.696 -999 3.441381 33.22592 26.545258
2009-03-16 09:10:27 51°13.364 2°50.695 -999 3.441277 33.224809 26.684555
2009-03-16 09:10:32 51°13.364 2°50.694 -999 3.441277 33.224809 26.684555
2009-03-16 09:10:37 51°13.364 2°50.693 -999 3.440967 33.222358 26.510434
2009-03-16 09:10:42 51°13.364 2°50.691 -999 3.440863 33.221247 26.580082
2009-03-16 09:10:47 51°13.364 2°50.69 -999 3.440863 33.219486 26.684555
2009-03-16 09:10:52 51°13.365 2°50.69 -999 3.440759 33.218375 26.510434
2009-03-16 09:10:57 51°13.365 2°50.689 -999 3.440759 33.216614 26.510434
2009-03-16 09:11:02 51°13.365 2°50.688 -999 3.440759 33.216614 26.510434
2009-03-16 09:11:07 51°13.365 2°50.688 -999 3.440759 33.216614 26.684555
2009-03-16 09:11:12 51°13.366 2°50.687 -999 3.440863 33.216844 26.64973
2009-03-16 09:11:17 51°13.366 2°50.687 -999 3.44107 33.217304 26.440786
2009-03-16 09:11:22 51°13.367 2°50.687 -999 3.441277 33.215123 26.47561
2009-03-16 09:11:27 51°13.368 2°50.686 -999 3.441588 33.212293 27.973045
2009-03-16 09:11:33 51°13.369 2°50.686 -999 3.441588 33.212293 27.973045
2009-03-16 09:11:37 51°13.369 2°50.686 -999 3.441692 33.208124 27.58998
2009-03-16 09:11:42 51°13.37 2°50.685 -999 3.440345 33.178753 26.858675
2009-03-16 09:11:47 51°13.371 2°50.686 -999 3.436719 33.105744 26.30149
2009-03-16 09:11:52 51°13.371 2°50.686 -999 3.434543 33.040536 26.266666
2009-03-16 09:11:57 51°13.372 2°50.686 -999 3.434231 32.987562 25.953249
2009-03-16 09:12:02 51°13.373 2°50.686 -999 3.434231 32.987562 25.953249
2009-03-16 09:12:07 51°13.374 2°50.687 -999 3.435474 32.964318 25.813953
2009-03-16 09:12:12 51°13.375 2°50.687 -999 3.43682 32.950032 25.430889
2009-03-16 09:12:17 51°13.376 2°50.688 -999 3.439824 32.951672 25.082648
2009-03-16 09:12:21 51°13.377 2°50.688 -999 3.443035 32.935629 24.386167
2009-03-16 09:12:27 51°13.378 2°50.688 -999 3.447385 32.921387 24.037926
2009-03-16 09:12:32 51°13.379 2°50.688 -999 3.447385 32.921387 24.037926
2009-03-16 09:12:37 51°13.38 2°50.689 -999 3.452357 32.919818 23.411093
2009-03-16 09:12:42 51°13.381 2°50.689 -999 3.454532 32.90931 22.470844
2009-03-16 09:12:47 51°13.382 2°50.689 -999 3.45909 32.934319 22.366372
2009-03-16 09:12:52 51°13.383 2°50.689 -999 3.461058 32.956851 22.714612
2009-03-16 09:12:57 51°13.383 2°50.69 -999 3.462716 32.992456 22.958381
2009-03-16 09:13:02 51°13.384 2°50.69 -999 3.462716 32.992456 22.958381
2009-03-16 09:13:07 51°13.385 2°50.69 -999 3.463027 33.02247 23.028029
2009-03-16 09:13:12 51°13.386 2°50.69 -999 3.462613 33.050035 22.61014
2009-03-16 09:13:17 51°13.387 2°50.69 -999 3.46137 33.073194 22.853909
2009-03-16 09:13:22 51°13.388 2°50.69 -999 3.46106 33.103709 23.271797
2009-03-16 09:13:27 51°13.389 2°50.69 -999 3.460439 33.125769 23.341445
2009-03-16 09:13:32 51°13.39 2°50.69 -999 3.460439 33.125769 23.341445
2009-03-16 09:13:37 51°13.391 2°50.69 -999 3.459506 33.14021 23.062853
2009-03-16 09:13:42 51°13.392 2°50.69 -999 3.45816 33.149392 22.78426
2009-03-16 09:13:47 51°13.393 2°50.69 -999 3.457228 33.156899 22.819085
2009-03-16 09:13:52 51°13.394 2°50.689 -999 3.456503 33.165749 22.749436
2009-03-16 09:13:57 51°13.395 2°50.689 -999 3.456089 33.175303 22.78426
2009-03-16 09:14:02 51°13.396 2°50.689 -999 3.456089 33.175303 22.78426
2009-03-16 09:14:07 51°13.397 2°50.689 -999 3.455674 33.183991 22.78426
2009-03-16 09:14:12 51°13.398 2°50.688 -999 3.454846 33.186516 22.192252
2009-03-16 09:14:17 51°13.398 2°50.688 -999 3.454017 33.182922 21.565419
2009-03-16 09:14:22 51°13.4 2°50.687 -999 3.452878 33.172512 21.077882
2009-03-16 09:14:27 51°13.4 2°50.687 -999 3.451945 33.165187 20.903762
2009-03-16 09:14:32 51°13.401 2°50.687 -999 3.451945 33.165187 20.903762
2009-03-16 09:14:37 51°13.402 2°50.686 -999 3.451427 33.164906 20.590345
2009-03-16 09:14:42 51°13.403 2°50.685 -999 3.450806 33.16177 20.137632
2009-03-16 09:14:47 51°13.404 2°50.685 -999 3.450081 33.157528 19.824216
2009-03-16 09:14:52 51°13.405 2°50.684 -999 3.449459 33.151769 19.475975
2009-03-16 09:14:57 51°13.406 2°50.684 -999 3.449045 33.147347 19.232207
2009-03-16 09:15:02 51°13.407 2°50.683 -999 3.449045 33.147347 19.232207
2009-03-16 09:15:07 51°13.408 2°50.682 -999 3.448423 33.142461 18.849142
2009-03-16 09:15:12 51°13.409 2°50.682 -999 3.448009 33.14066 18.675022
2009-03-16 09:15:17 51°13.41 2°50.681 -999 3.447698 33.137343 18.640198
2009-03-16 09:15:22 51°13.411 2°50.68 -999 3.447388 33.137522 18.675022
2009-03-16 09:15:27 51°13.412 2°50.68 -999 3.44718 33.139681 18.709846
2009-03-16 09:15:32 51°13.413 2°50.679 -999 3.44718 33.139681 18.709846
2009-03-16 09:15:37 51°13.414 2°50.678 -999 3.446973 33.140966 18.640198
2009-03-16 09:15:42 51°13.415 2°50.677 -999 3.446766 33.141377 18.535726
2009-03-16 09:15:47 51°13.416 2°50.677 -999 3.44687 33.143358 18.709846
2009-03-16 09:15:52 51°13.416 2°50.676 -999 3.447077 33.149944 19.058087
2009-03-16 09:15:57 51°13.417 2°50.676 -999 3.447388 33.160263 18.814318
2009-03-16 09:16:02 51°13.418 2°50.675 -999 3.447388 33.160263 18.814318
2009-03-16 09:16:06 51°13.419 2°50.675 -999 3.447284 33.161783 18.709846
2009-03-16 09:16:12 51°13.42 2°50.673 -999 3.447181 33.164178 19.058087
2009-03-16 09:16:17 51°13.421 2°50.673 -999 3.447284 33.169664 19.162559
2009-03-16 09:16:22 51°13.422 2°50.673 -999 3.447388 33.173399 19.580448
2009-03-16 09:16:27 51°13.422 2°50.672 -999 3.447906 33.185068 20.346577
2009-03-16 09:16:32 51°13.423 2°50.671 -999 3.447906 33.185068 20.346577
2009-03-16 09:16:37 51°13.424 2°50.671 -999 3.448735 33.202696 21.391298
2009-03-16 09:16:42 51°13.425 2°50.67 -999 3.449978 33.226522 22.052955
2009-03-16 09:16:47 51°13.425 2°50.67 -999 3.450911 33.247039 22.43602
2009-03-16 09:16:53 51°13.426 2°50.67 -999 3.451739 33.263822 22.575316
2009-03-16 09:16:57 51°13.427 2°50.669 -999 3.452361 33.276635 23.028029
2009-03-16 09:17:02 51°13.427 2°50.669 -999 3.452361 33.276635 23.028029
2009-03-16 09:17:07 51°13.428 2°50.669 -999 3.453501 33.297642 23.236973
2009-03-16 09:17:12 51°13.429 2°50.669 -999 3.454329 33.316214 23.515566
2009-03-16 09:17:17 51°13.43 2°50.67 -999 3.454951 33.32993 23.620038
2009-03-16 09:17:22 51°13.431 2°50.671 -999 3.455573 33.34277 23.72451
2009-03-16 09:17:27 51°13.431 2°50.673 -999 3.45578 33.350289 24.107575
2009-03-16 09:17:32 51°13.432 2°50.674 -999 3.45578 33.350289 24.107575
2009-03-16 09:17:37 51°13.433 2°50.676 -999 3.455987 33.356044 24.142399
2009-03-16 09:17:42 51°13.433 2°50.679 -999 3.456091 33.361573 24.107575
2009-03-16 09:17:46 51°13.433 2°50.681 -999 3.455884 33.362003 24.107575
2009-03-16 09:17:52 51°13.432 2°50.685 -999 3.456298 33.369098 24.316519
2009-03-16 09:17:57 51°13.432 2°50.688 -999 3.456298 33.370867 25.117472
2009-03-16 09:18:02 51°13.432 2°50.692 -999 3.456298 33.370867 25.117472
2009-03-16 09:18:07 51°13.431 2°50.696 -999 3.456713 33.377079 24.83888
2009-03-16 09:18:12 51°13.43 2°50.7 -999 3.456609 33.376853 24.804056
2009-03-16 09:18:17 51°13.429 2°50.704 -999 3.456609 33.377738 24.943352
2009-03-16 09:18:22 51°13.428 2°50.709 -999 3.456816 33.37996 24.734408
2009-03-16 09:18:26 51°13.427 2°50.713 -999 3.457023 33.383951 24.386167
2009-03-16 09:18:32 51°13.425 2°50.719 -999 3.457023 33.383951 24.386167
2009-03-16 09:18:37 51°13.424 2°50.725 -999 3.457231 33.386174 24.420991
2009-03-16 09:18:42 51°13.423 2°50.731 -999 3.457127 33.385947 24.281695
2009-03-16 09:18:47 51°13.422 2°50.737 -999 3.45692 33.381955 24.316519
2009-03-16 09:18:52 51°13.421 2°50.743 -999 3.456816 33.380844 24.107575
2009-03-16 09:18:57 51°13.419 2°50.749 -999 3.456816 33.381729 23.933454
2009-03-16 09:19:02 51°13.418 2°50.756 -999 3.456816 33.381729 23.933454
2009-03-16 09:19:07 51°13.416 2°50.763 -999 3.456713 33.380618 24.177223
2009-03-16 09:19:12 51°13.415 2°50.77 -999 3.456402 33.377285 24.525463
2009-03-16 09:19:17 51°13.413 2°50.777 -999 3.456402 33.379054 25.117472
2009-03-16 09:19:22 51°13.411 2°50.784 -999 3.456091 33.376605 25.326416
2009-03-16 09:19:27 51°13.409 2°50.791 -999 3.455677 33.373045 25.36124
2009-03-16 09:19:32 51°13.408 2°50.798 -999 3.455677 33.373045 25.36124
2009-03-16 09:19:37 51°13.406 2°50.805 -999 3.455366 33.370596 25.535361
2009-03-16 09:19:42 51°13.404 2°50.813 -999 3.454744 33.365698 25.813953
2009-03-16 09:19:47 51°13.403 2°50.82 -999 3.454019 33.359688 25.883601
2009-03-16 09:19:52 51°13.401 2°50.827 -999 3.453605 33.356128 25.988073
2009-03-16 09:19:57 51°13.4 2°50.833 -999 3.452569 33.348552 25.605009
2009-03-16 09:20:02 51°13.399 2°50.839 -999 3.452569 33.348552 25.605009
2009-03-16 09:20:06 51°13.398 2°50.843 -999 3.452983 33.35565 25.674657
2009-03-16 09:20:12 51°13.397 2°50.849 -999 3.45143 33.340748 25.953249
2009-03-16 09:20:17 51°13.396 2°50.854 -999 3.450808 33.334964 25.988073
2009-03-16 09:20:22 51°13.395 2°50.858 -999 3.450912 33.336959 25.639833
2009-03-16 09:20:26 51°13.394 2°50.862 -999 3.450186 33.328295 25.256768
2009-03-16 09:20:32 51°13.392 2°50.866 -999 3.450186 33.328295 25.256768
2009-03-16 09:20:37 51°13.391 2°50.869 -999 3.448425 33.30587 25.36124
2009-03-16 09:20:42 51°13.39 2°50.872 -999 3.446146 33.273486 25.082648
2009-03-16 09:20:47 51°13.388 2°50.874 -999 3.443556 33.236908 24.873704
2009-03-16 09:20:52 51°13.387 2°50.876 -999 3.442106 33.216083 24.873704
2009-03-16 09:20:57 51°13.385 2°50.878 -999 3.440863 33.197485 25.36124
2009-03-16 09:21:02 51°13.383 2°50.879 -999 3.440863 33.197485 25.36124
2009-03-16 09:21:07 51°13.382 2°50.88 -999 3.440448 33.193046 25.883601
2009-03-16 09:21:13 51°13.38 2°50.88 -999 3.441692 33.208124 26.440786
2009-03-16 09:21:17 51°13.379 2°50.88 -999 3.441899 33.214743 26.684555
2009-03-16 09:21:22 51°13.378 2°50.88 -999 3.441277 33.211603 26.997971
2009-03-16 09:21:27 51°13.376 2°50.88 -999 3.442002 33.222015 26.858675
2009-03-16 09:21:32 51°13.375 2°50.879 -999 3.442002 33.222015 26.858675
2009-03-16 09:21:37 51°13.373 2°50.878 -999 3.44221 33.225997 26.823851
2009-03-16 09:21:42 51°13.372 2°50.878 -999 3.441899 33.222666 26.614906
2009-03-16 09:21:47 51°13.37 2°50.877 -999 3.441588 33.219334 26.614906
2009-03-16 09:21:52 51°13.368 2°50.876 -999 3.441174 33.214893 26.266666
2009-03-16 09:21:57 51°13.367 2°50.876 -999 3.440449 33.208001 26.266666
2009-03-16 09:22:02 51°13.365 2°50.874 -999 3.440449 33.208001 26.266666
2009-03-16 09:22:07 51°13.364 2°50.874 -999 3.43848 33.187786 26.022897
2009-03-16 09:22:12 51°13.362 2°50.872 -999 3.440138 33.20643 26.162194
2009-03-16 09:22:17 51°13.361 2°50.871 -999 3.440138 33.20643 26.162194
2009-03-16 09:22:22 51°13.359 2°50.87 -999 3.440034 33.20708 26.12737
2009-03-16 09:22:27 51°13.357 2°50.869 -999 3.438895 33.193986 25.883601
2009-03-16 09:22:32 51°13.356 2°50.868 -999 3.438895 33.193986 25.883601
2009-03-16 09:22:37 51°13.354 2°50.867 -999 3.43962 33.201759 25.848777
2009-03-16 09:22:41 51°13.353 2°50.865 -999 3.439724 33.203749 25.918425
2009-03-16 09:22:47 51°13.351 2°50.864 -999 3.439413 33.201298 25.779129
2009-03-16 09:22:52 51°13.349 2°50.862 -999 3.43962 33.204399 25.813953
2009-03-16 09:22:57 51°13.348 2°50.861 -999 3.439413 33.202178 25.848777
2009-03-16 09:23:02 51°13.346 2°50.859 -999 3.439413 33.202178 25.848777
2009-03-16 09:23:07 51°13.344 2°50.858 -999 3.438273 33.189964 25.709481
2009-03-16 09:23:12 51°13.343 2°50.856 -999 3.437963 33.186633 25.639833
2009-03-16 09:23:17 51°13.341 2°50.855 -999 3.43817 33.187974 25.535361
2009-03-16 09:23:22 51°13.34 2°50.853 -999 3.437134 33.175112 25.396065
2009-03-16 09:23:26 51°13.338 2°50.852 -999 3.437445 33.178443 25.535361
2009-03-16 09:23:32 51°13.337 2°50.85 -999 3.437445 33.178443 25.535361
2009-03-16 09:23:37 51°13.335 2°50.849 -999 3.436201 33.164241 25.396065
2009-03-16 09:23:42 51°13.334 2°50.847 -999 3.435787 33.1598 25.291592
2009-03-16 09:23:46 51°13.332 2°50.845 -999 3.436616 33.167803 25.291592
2009-03-16 09:23:52 51°13.33 2°50.843 -999 3.43558 33.156701 25.291592
2009-03-16 09:23:57 51°13.329 2°50.842 -999 3.436823 33.170023 25.500537
2009-03-16 09:24:02 51°13.327 2°50.84 -999 3.436823 33.170023 25.500537
2009-03-16 09:24:07 51°13.326 2°50.838 -999 3.436719 33.168913 25.605009
2009-03-16 09:24:12 51°13.324 2°50.836 -999 3.437237 33.174463 25.36124
2009-03-16 09:24:17 51°13.323 2°50.834 -999 3.436201 33.162483 25.256768
2009-03-16 09:24:22 51°13.321 2°50.832 -999 3.435476 33.153834 25.18712
2009-03-16 09:24:27 51°13.319 2°50.831 -999 3.434751 33.145186 25.013
2009-03-16 09:24:32 51°13.317 2°50.829 -999 3.434751 33.145186 25.013
2009-03-16 09:24:37 51°13.317 2°50.827 -999 3.435373 33.150967 24.629935
2009-03-16 09:24:42 51°13.315 2°50.825 -999 3.435165 33.146112 24.351343
2009-03-16 09:24:47 51°13.314 2°50.822 -999 3.43413 33.13238 23.794158
2009-03-16 09:24:52 51°13.312 2°50.82 -999 3.431333 33.098912 23.306621
2009-03-16 09:24:57 51°13.311 2°50.819 -999 3.431851 33.100075 22.61014
2009-03-16 09:25:02 51°13.309 2°50.816 -999 3.431851 33.100075 22.61014
2009-03-16 09:25:07 51°13.308 2°50.814 -999 3.429468 33.070182 22.401196
2009-03-16 09:25:13 51°13.306 2°50.812 -999 3.428536 33.056699 22.157428
2009-03-16 09:25:17 51°13.305 2°50.81 -999 3.427707 33.045203 21.913659
2009-03-16 09:25:22 51°13.303 2°50.808 -999 3.428846 33.055649 22.087779
2009-03-16 09:25:27 51°13.302 2°50.806 -999 3.4275 33.041235 22.401196
2009-03-16 09:25:32 51°13.3 2°50.804 -999 3.4275 33.041235 22.401196
2009-03-16 09:25:37 51°13.299 2°50.802 -999 3.427603 33.043219 22.61014
2009-03-16 09:25:42 51°13.297 2°50.799 -999 3.429054 33.059617 22.749436
2009-03-16 09:25:47 51°13.296 2°50.797 -999 3.428743 33.05629 22.575316
2009-03-16 09:25:52 51°13.294 2°50.794 -999 3.428743 33.055415 22.78426
2009-03-16 09:25:57 51°13.292 2°50.792 -999 3.428743 33.05629 23.306621
2009-03-16 09:26:02 51°13.291 2°50.79 -999 3.428743 33.05629 23.306621
2009-03-16 09:26:07 51°13.289 2°50.788 -999 3.428846 33.061776 23.933454
2009-03-16 09:26:12 51°13.288 2°50.785 -999 3.430504 33.082149 23.968278
2009-03-16 09:26:17 51°13.286 2°50.783 -999 3.431229 33.091666 23.759334
2009-03-16 09:26:22 51°13.285 2°50.78 -999 3.429882 33.078122 24.003102
2009-03-16 09:26:27 51°13.283 2°50.778 -999 3.432472 33.107608 23.794158
2009-03-16 09:26:32 51°13.282 2°50.776 -999 3.432472 33.107608 23.794158
2009-03-16 09:26:37 51°13.28 2°50.773 -999 3.432058 33.10317 23.759334
2009-03-16 09:26:42 51°13.279 2°50.771 -999 3.431125 33.092309 23.411093
2009-03-16 09:26:47 51°13.278 2°50.769 -999 3.4304 33.082792 23.411093
2009-03-16 09:26:52 51°13.276 2°50.767 -999 3.4304 33.08104 23.236973
2009-03-16 09:26:57 51°13.275 2°50.764 -999 3.430193 33.077069 23.271797
2009-03-16 09:27:02 51°13.273 2°50.762 -999 3.430193 33.077069 23.271797
2009-03-16 09:27:07 51°13.272 2°50.76 -999 3.430297 33.078178 23.236973
2009-03-16 09:27:12 51°13.27 2°50.757 -999 3.429675 33.070648 23.202149
2009-03-16 09:27:17 51°13.269 2°50.755 -999 3.429054 33.061368 23.236973
2009-03-16 09:27:22 51°13.267 2°50.753 -999 3.428018 33.048529 23.376269
2009-03-16 09:27:27 51°13.266 2°50.751 -999 3.427707 33.045203 23.689686
2009-03-16 09:27:32 51°13.264 2°50.748 -999 3.427707 33.045203 23.689686
2009-03-16 09:27:37 51°13.263 2°50.745 -999 3.42895 33.059383 23.968278
2009-03-16 09:27:42 51°13.261 2°50.743 -999 3.427396 33.041876 23.828982
2009-03-16 09:27:46 51°13.26 2°50.74 -999 3.427707 33.046078 23.759334
2009-03-16 09:27:52 51°13.259 2°50.738 -999 3.429468 33.064052 23.620038
2009-03-16 09:27:57 51°13.257 2°50.735 -999 3.429675 33.064519 23.689686
2009-03-16 09:28:02 51°13.255 2°50.733 -999 3.429675 33.064519 23.689686
2009-03-16 09:28:06 51°13.254 2°50.731 -999 3.429468 33.063177 23.72451
2009-03-16 09:28:12 51°13.253 2°50.728 -999 3.430815 33.078467 23.933454
2009-03-16 09:28:17 51°13.251 2°50.726 -999 3.431229 33.082903 24.177223
2009-03-16 09:28:22 51°13.25 2°50.723 -999 3.432058 33.093527 24.351343
2009-03-16 09:28:27 51°13.248 2°50.721 -999 3.432679 33.101935 24.595111
2009-03-16 09:28:32 51°13.247 2°50.718 -999 3.432679 33.101935 24.595111
2009-03-16 09:28:37 51°13.245 2°50.716 -999 3.434026 33.120739 25.291592
2009-03-16 09:28:42 51°13.244 2°50.713 -999 3.436098 33.148195 26.580082
2009-03-16 09:28:47 51°13.242 2°50.711 -999 3.439827 33.1987 27.102443
2009-03-16 09:28:52 51°13.241 2°50.708 -999 3.441381 33.222397 26.545258
2009-03-16 09:28:57 51°13.239 2°50.706 -999 3.440759 33.217495 26.47561
2009-03-16 09:29:02 51°13.238 2°50.703 -999 3.440759 33.217495 26.47561
2009-03-16 09:29:07 51°13.237 2°50.701 -999 3.440552 33.216154 26.336314
2009-03-16 09:29:12 51°13.235 2°50.698 -999 3.439827 33.208381 26.057722
2009-03-16 09:29:17 51°13.234 2°50.696 -999 3.438895 33.196626 25.883601
2009-03-16 09:29:22 51°13.232 2°50.693 -999 3.439206 33.199077 26.092546
2009-03-16 09:29:27 51°13.231 2°50.691 -999 3.438791 33.193756 25.883601
2009-03-16 09:29:33 51°13.229 2°50.688 -999 3.438791 33.193756 25.883601
2009-03-16 09:29:37 51°13.228 2°50.686 -999 3.438066 33.183345 25.396065
2009-03-16 09:29:42 51°13.227 2°50.683 -999 3.435683 33.151661 25.152296
2009-03-16 09:29:47 51°13.225 2°50.681 -999 3.433715 33.126186 25.465713
2009-03-16 09:29:52 51°13.224 2°50.678 -999 3.43413 33.128869 25.535361
2009-03-16 09:29:57 51°13.223 2°50.676 -999 3.434855 33.135758 25.535361
2009-03-16 09:30:02 51°13.221 2°50.673 -999 3.434855 33.135758 25.535361
2009-03-16 09:30:07 51°13.22 2°50.671 -999 3.433301 33.11736 25.117472
2009-03-16 09:30:12 51°13.218 2°50.668 -999 3.432472 33.104977 24.769232
2009-03-16 09:30:17 51°13.217 2°50.665 -999 3.432576 33.101702 24.908528
2009-03-16 09:30:22 51°13.216 2°50.663 -999 3.433094 33.107248 25.709481
2009-03-16 09:30:27 51°13.214 2°50.66 -999 3.434855 33.128737 25.709481
2009-03-16 09:30:32 51°13.213 2°50.658 -999 3.434855 33.128737 25.709481
2009-03-16 09:30:37 51°13.211 2°50.655 -999 3.43558 33.139136 25.988073
2009-03-16 09:30:42 51°13.21 2°50.653 -999 3.43703 33.159939 26.963147
2009-03-16 09:30:46 51°13.209 2°50.651 -999 3.439723 33.19759 27.450684
2009-03-16 09:30:52 51°13.207 2°50.648 -999 3.442003 33.230822 27.798924
2009-03-16 09:30:57 51°13.206 2°50.645 -999 3.442728 33.243884 27.276563
2009-03-16 09:31:02 51°13.204 2°50.643 -999 3.442728 33.243884 27.276563
2009-03-16 09:31:06 51°13.203 2°50.641 -999 3.441899 33.235879 26.893499
2009-03-16 09:31:12 51°13.202 2°50.638 -999 3.438273 33.195244 27.032795
2009-03-16 09:31:17 51°13.2 2°50.635 -999 3.441174 33.227222 27.137267
2009-03-16 09:31:22 51°13.199 2°50.633 -999 3.441174 33.226341 26.823851
2009-03-16 09:31:26 51°13.197 2°50.631 -999 3.440552 33.217916 26.789027
2009-03-16 09:31:32 51°13.196 2°50.628 -999 3.440552 33.217916 26.789027
2009-03-16 09:31:37 51°13.195 2°50.625 -999 3.44107 33.222588 27.241739
2009-03-16 09:31:42 51°13.193 2°50.623 -999 3.442624 33.241892 27.311387
2009-03-16 09:31:47 51°13.192 2°50.62 -999 3.44366 33.254763 27.659628
2009-03-16 09:31:52 51°13.19 2°50.618 -999 3.444178 33.263846 27.58998
2009-03-16 09:31:57 51°13.189 2°50.615 -999 3.444696 33.270283 27.903396
2009-03-16 09:32:02 51°13.188 2°50.612 -999 3.444696 33.270283 27.903396
2009-03-16 09:32:06 51°13.186 2°50.61 -999 3.445525 33.283585 28.565053
2009-03-16 09:32:12 51°13.185 2°50.607 -999 3.447182 33.3049 28.739174
2009-03-16 09:32:17 51°13.183 2°50.605 -999 3.448633 33.32665 28.669526
2009-03-16 09:32:22 51°13.182 2°50.602 -999 3.448736 33.32953 28.390933
2009-03-16 09:32:27 51°13.181 2°50.6 -999 3.448529 33.327307 28.530229
2009-03-16 09:32:32 51°13.179 2°50.597 -999 3.448529 33.327307 28.530229
2009-03-16 09:32:37 51°13.178 2°50.595 -999 3.448736 33.331299 28.913294
2009-03-16 09:32:42 51°13.177 2°50.592 -999 3.449772 33.345958 29.122238
2009-03-16 09:32:46 51°13.176 2°50.59 -999 3.451015 33.363731 29.505303
2009-03-16 09:32:52 51°13.174 2°50.587 -999 3.452466 33.383734 29.540127
2009-03-16 09:32:57 51°13.173 2°50.584 -999 3.453398 33.39818 29.679423
2009-03-16 09:33:02 51°13.171 2°50.581 -999 3.453398 33.39818 29.679423
2009-03-16 09:33:06 51°13.17 2°50.579 -999 3.454331 33.411743 29.888367
2009-03-16 09:33:12 51°13.169 2°50.576 -999 3.455263 33.426197 30.201784
2009-03-16 09:33:17 51°13.167 2°50.574 -999 3.455988 33.436653 30.132136
2009-03-16 09:33:22 51°13.166 2°50.571 -999 3.45661 33.445998 30.445552
2009-03-16 09:33:27 51°13.164 2°50.568 -999 3.457024 33.453117 30.5152
2009-03-16 09:33:32 51°13.163 2°50.566 -999 3.457024 33.453117 30.5152
2009-03-16 09:33:37 51°13.162 2°50.563 -999 3.457231 33.456233 30.201784
2009-03-16 09:33:42 51°13.16 2°50.561 -999 3.457128 33.455119 30.201784
2009-03-16 09:33:46 51°13.159 2°50.559 -999 3.456713 33.450665 29.958016
2009-03-16 09:33:52 51°13.158 2°50.556 -999 3.455988 33.440206 29.574951
2009-03-16 09:33:57 51°13.156 2°50.553 -999 3.45547 33.432863 29.749071
2009-03-16 09:34:02 51°13.155 2°50.551 -999 3.45547 33.432863 29.749071
2009-03-16 09:34:07 51°13.154 2°50.548 -999 3.455781 33.437091 30.16696
2009-03-16 09:34:12 51°13.152 2°50.546 -999 3.456092 33.441319 29.853543
2009-03-16 09:34:17 51°13.151 2°50.543 -999 3.456299 33.444434 30.027664
2009-03-16 09:34:22 51°13.149 2°50.541 -999 3.456506 33.44755 29.923192
2009-03-16 09:34:27 51°13.148 2°50.538 -999 3.456817 33.451779 29.958016
2009-03-16 09:34:32 51°13.147 2°50.536 -999 3.456817 33.451779 29.958016
2009-03-16 09:34:37 51°13.145 2°50.533 -999 3.457128 33.455119 30.132136
2009-03-16 09:34:42 51°13.144 2°50.531 -999 3.457439 33.459349 30.097312
2009-03-16 09:34:47 51°13.143 2°50.528 -999 3.457335 33.458235 29.818719
2009-03-16 09:34:52 51°13.141 2°50.526 -999 3.456817 33.451779 29.783895
2009-03-16 09:34:57 51°13.14 2°50.523 -999 3.456195 33.444209 29.435655
2009-03-16 09:35:02 51°13.139 2°50.52 -999 3.456195 33.444209 29.435655
2009-03-16 09:35:07 51°13.137 2°50.518 -999 3.455263 33.429749 29.366007
2009-03-16 09:35:12 51°13.136 2°50.515 -999 3.454641 33.419519 29.087414
2009-03-16 09:35:17 51°13.134 2°50.513 -999 3.453916 33.409066 29.122238
2009-03-16 09:35:22 51°13.133 2°50.511 -999 3.453605 33.403953 29.157062
2009-03-16 09:35:27 51°13.132 2°50.508 -999 3.453502 33.401066 28.948118
2009-03-16 09:35:33 51°13.13 2°50.505 -999 3.453502 33.401066 28.948118
2009-03-16 09:35:37 51°13.129 2°50.503 -999 3.453709 33.403292 29.22671
2009-03-16 09:35:42 51°13.128 2°50.5 -999 3.454331 33.410856 29.400831
2009-03-16 09:35:47 51°13.126 2°50.498 -999 3.454952 33.419308 29.296359
2009-03-16 09:35:52 51°13.124 2°50.494 -999 3.455367 33.424648 29.400831
2009-03-16 09:35:57 51°13.122 2°50.492 -999 3.455263 33.422647 29.017766
2009-03-16 09:36:02 51°13.119 2°50.489 -999 3.455263 33.422647 29.017766
2009-03-16 09:36:07 51°13.116 2°50.486 -999 3.454641 33.413307 28.634702
2009-03-16 09:36:12 51°13.113 2°50.482 -999 3.453605 33.398632 28.565053
2009-03-16 09:36:17 51°13.11 2°50.479 -999 3.453191 33.391522 28.773998
2009-03-16 09:36:22 51°13.106 2°50.475 -999 3.453502 33.393973 28.808822
2009-03-16 09:36:26 51°13.104 2°50.472 -999 3.454123 33.401535 29.22671
2009-03-16 09:36:32 51°13.099 2°50.466 -999 3.454123 33.401535 29.22671
2009-03-16 09:36:37 51°13.095 2°50.462 -999 3.454849 33.411984 29.05259
2009-03-16 09:36:42 51°13.091 2°50.457 -999 3.454641 33.408872 28.390933
2009-03-16 09:36:47 51°13.087 2°50.452 -999 3.45288 33.382867 27.555156
2009-03-16 09:36:52 51°13.083 2°50.447 -999 3.450083 33.342216 26.580082
2009-03-16 09:36:57 51°13.079 2°50.441 -999 3.448011 33.304958 25.36124
2009-03-16 09:37:02 51°13.074 2°50.435 -999 3.448011 33.304958 25.36124
2009-03-16 09:37:07 51°13.07 2°50.43 -999 3.445628 33.260879 23.480742
2009-03-16 09:37:12 51°13.066 2°50.423 -999 3.44252 33.204688 21.495771
2009-03-16 09:37:17 51°13.061 2°50.416 -999 3.440759 33.162994 20.729641
2009-03-16 09:37:22 51°13.057 2°50.409 -999 3.440862 33.150069 20.416225
2009-03-16 09:37:27 51°13.052 2°50.402 -999 3.442002 33.156998 20.451049
2009-03-16 09:37:33 51°13.048 2°50.393 -999 3.442002 33.156998 20.451049
2009-03-16 09:37:37 51°13.044 2°50.387 -999 3.443452 33.172512 20.764465
2009-03-16 09:37:42 51°13.04 2°50.378 -999 3.445317 33.196849 21.043058
2009-03-16 09:37:47 51°13.036 2°50.37 -999 3.446767 33.215003 21.077882
2009-03-16 09:37:52 51°13.032 2°50.361 -999 3.447907 33.231593 20.97341
2009-03-16 09:37:57 51°13.028 2°50.353 -999 3.448632 33.241113 20.97341
2009-03-16 09:38:02 51°13.024 2°50.344 -999 3.448632 33.241113 20.97341
2009-03-16 09:38:06 51°13.021 2°50.337 -999 3.449253 33.248646 21.112706
2009-03-16 09:38:12 51°13.016 2°50.327 -999 3.449978 33.257289 21.286826
2009-03-16 09:38:17 51°13.012 2°50.318 -999 3.450704 33.266813 21.565419
2009-03-16 09:38:22 51°13.008 2°50.309 -999 3.45174 33.284069 22.018131
2009-03-16 09:38:26 51°13.005 2°50.302 -999 3.452776 33.302214 22.78426
2009-03-16 09:38:32 51°13 2°50.292 -999 3.452776 33.302214 22.78426
2009-03-16 09:38:37 51°12.996 2°50.284 -999 3.454122 33.326345 24.037926
2009-03-16 09:38:42 51°12.991 2°50.276 -999 3.456091 33.361573 25.082648
2009-03-16 09:38:47 51°12.987 2°50.268 -999 3.458163 33.39883 26.092546
2009-03-16 09:38:52 51°12.983 2°50.26 -999 3.459406 33.425456 26.47561
2009-03-16 09:38:57 51°12.979 2°50.252 -999 3.460753 33.453216 26.545258
2009-03-16 09:39:02 51°12.975 2°50.244 -999 3.460753 33.453216 26.545258
2009-03-16 09:39:07 51°12.971 2°50.237 -999 3.461375 33.467882 26.614906
2009-03-16 09:39:13 51°12.966 2°50.229 -999 3.461789 33.477663 26.614906
2009-03-16 09:39:17 51°12.963 2°50.223 -999 3.4621 33.486334 26.371138
2009-03-16 09:39:22 51°12.959 2°50.216 -999 3.462411 33.495008 26.440786
2009-03-16 09:39:27 51°12.955 2°50.208 -999 3.462722 33.498348 26.266666
2009-03-16 09:39:32 51°12.951 2°50.202 -999 3.462722 33.498348 26.266666
2009-03-16 09:39:37 51°12.948 2°50.194 -999 3.463033 33.503467 25.953249
2009-03-16 09:39:42 51°12.944 2°50.187 -999 3.463447 33.50881 25.918425
2009-03-16 09:39:47 51°12.94 2°50.181 -999 3.463861 33.513263 25.779129
2009-03-16 09:39:52 51°12.937 2°50.174 -999 3.464276 33.519497 25.709481
2009-03-16 09:39:57 51°12.933 2°50.167 -999 3.464794 33.526845 25.883601
2009-03-16 09:40:01 51°12.931 2°50.162 -999 3.464794 33.526845 25.883601
2009-03-16 09:40:07 51°12.927 2°50.154 -999 3.465208 33.531299 25.848777
2009-03-16 09:40:13 51°12.923 2°50.146 -999 3.465933 33.540876 25.918425
2009-03-16 09:40:17 51°12.92 2°50.141 -999 3.466555 33.552013 26.092546
2009-03-16 09:40:22 51°12.917 2°50.134 -999 3.467384 33.565382 26.266666
2009-03-16 09:40:27 51°12.914 2°50.127 -999 3.468109 33.577641 26.12737
2009-03-16 09:40:32 51°12.911 2°50.122 -999 3.468109 33.577641 26.12737
2009-03-16 09:40:37 51°12.908 2°50.115 -999 3.468627 33.585889 26.162194
2009-03-16 09:40:42 51°12.905 2°50.109 -999 3.469041 33.592132 26.336314
2009-03-16 09:40:46 51°12.903 2°50.104 -999 3.469249 33.597933 26.371138
2009-03-16 09:40:52 51°12.9 2°50.096 -999 3.469559 33.602169 26.30149
2009-03-16 09:40:57 51°12.897 2°50.09 -999 3.46987 33.606406 26.336314
2009-03-16 09:41:02 51°12.894 2°50.084 -999 3.46987 33.606406 26.336314
2009-03-16 09:41:07 51°12.892 2°50.078 -999 3.470181 33.60975 26.092546
2009-03-16 09:41:12 51°12.889 2°50.072 -999 3.470388 33.612873 26.197018
2009-03-16 09:41:17 51°12.886 2°50.066 -999 3.470595 33.614209 25.988073
2009-03-16 09:41:22 51°12.884 2°50.06 -999 3.470803 33.616438 26.092546
2009-03-16 09:41:27 51°12.881 2°50.054 -999 3.471113 33.618889 26.162194
2009-03-16 09:41:33 51°12.878 2°50.048 -999 3.471113 33.618889 26.162194
2009-03-16 09:41:37 51°12.876 2°50.043 -999 3.471321 33.622906 26.231842
2009-03-16 09:41:42 51°12.874 2°50.037 -999 3.471631 33.62625 26.47561
2009-03-16 09:41:47 51°12.872 2°50.031 -999 3.471839 33.631161 26.30149
2009-03-16 09:41:52 51°12.869 2°50.026 -999 3.472046 33.634285 26.336314
2009-03-16 09:41:57 51°12.867 2°50.02 -999 3.472253 33.636515 26.231842
2009-03-16 09:42:02 51°12.864 2°50.015 -999 3.472253 33.636515 26.231842
2009-03-16 09:42:07 51°12.862 2°50.009 -999 3.472253 33.639198 26.336314
2009-03-16 09:42:13 51°12.859 2°50.002 -999 3.472253 33.638304 26.30149
2009-03-16 09:42:17 51°12.857 2°49.998 -999 3.472357 33.639419 26.022897
2009-03-16 09:42:22 51°12.855 2°49.993 -999 3.47246 33.639639 25.988073
2009-03-16 09:42:27 51°12.852 2°49.987 -999 3.47246 33.638745 26.057722
2009-03-16 09:42:32 51°12.85 2°49.982 -999 3.47246 33.638745 26.057722
2009-03-16 09:42:37 51°12.847 2°49.977 -999 3.472667 33.640081 25.465713
2009-03-16 09:42:42 51°12.845 2°49.973 -999 3.472667 33.640081 25.221944
2009-03-16 09:42:47 51°12.842 2°49.968 -999 3.472771 33.638513 25.013
2009-03-16 09:42:52 51°12.84 2°49.962 -999 3.472875 33.638734 24.769232
2009-03-16 09:42:57 51°12.837 2°49.958 -999 3.472978 33.639848 24.734408
2009-03-16 09:43:01 51°12.836 2°49.953 -999 3.472978 33.639848 24.734408
2009-03-16 09:43:07 51°12.833 2°49.948 -999 3.473082 33.640069 24.664759
2009-03-16 09:43:12 51°12.83 2°49.943 -999 3.472978 33.63806 24.490639
2009-03-16 09:43:17 51°12.828 2°49.938 -999 3.473082 33.637387 24.455815
2009-03-16 09:43:22 51°12.825 2°49.934 -999 3.473082 33.635599 24.351343
2009-03-16 09:43:27 51°12.823 2°49.929 -999 3.473185 33.634926 24.142399
2009-03-16 09:43:32 51°12.82 2°49.925 -999 3.473185 33.634926 24.142399
2009-03-16 09:43:37 51°12.818 2°49.92 -999 3.473289 33.635147 24.246871
2009-03-16 09:43:42 51°12.815 2°49.916 -999 3.473392 33.636261 24.246871
2009-03-16 09:43:47 51°12.813 2°49.911 -999 3.473703 33.641393 24.420991
2009-03-16 09:43:52 51°12.811 2°49.906 -999 3.473807 33.642508 24.490639
2009-03-16 09:43:57 51°12.808 2°49.901 -999 3.473807 33.642508 24.525463
2009-03-16 09:44:02 51°12.806 2°49.897 -999 3.473807 33.642508 24.525463
2009-03-16 09:44:07 51°12.803 2°49.892 -999 3.47391 33.64094 24.386167
2009-03-16 09:44:13 51°12.8 2°49.887 -999 3.47391 33.639153 24.490639
2009-03-16 09:44:17 51°12.798 2°49.883 -999 3.47391 33.638259 24.525463
2009-03-16 09:44:22 51°12.796 2°49.878 -999 3.474118 33.641382 24.978176
2009-03-16 09:44:27 51°12.794 2°49.874 -999 3.474428 33.647407 25.082648
2009-03-16 09:44:32 51°12.791 2°49.869 -999 3.474428 33.647407 25.082648
2009-03-16 09:44:37 51°12.789 2°49.865 -999 3.474428 33.650984 25.117472
2009-03-16 09:44:42 51°12.786 2°49.86 -999 3.474429 33.653667 25.326416
2009-03-16 09:44:46 51°12.784 2°49.857 -999 3.474429 33.657246 25.709481
2009-03-16 09:44:52 51°12.781 2°49.851 -999 3.474429 33.660825 25.570185
2009-03-16 09:44:57 51°12.779 2°49.847 -999 3.474325 33.662394 25.465713
2009-03-16 09:45:02 51°12.776 2°49.842 -999 3.474325 33.662394 25.465713
2009-03-16 09:45:07 51°12.774 2°49.838 -999 3.474118 33.661059 25.221944
2009-03-16 09:45:12 51°12.771 2°49.833 -999 3.473911 33.658829 25.047824
2009-03-16 09:45:17 51°12.769 2°49.828 -999 3.4736 33.655483 25.117472
2009-03-16 09:45:22 51°12.766 2°49.824 -999 3.473496 33.654368 25.256768
2009-03-16 09:45:27 51°12.764 2°49.819 -999 3.473393 33.653253 25.36124
2009-03-16 09:45:33 51°12.761 2°49.814 -999 3.473393 33.653253 25.36124
2009-03-16 09:45:37 51°12.758 2°49.81 -999 3.473496 33.654368 25.291592
2009-03-16 09:45:42 51°12.756 2°49.805 -999 3.473496 33.654368 25.221944
2009-03-16 09:45:47 51°12.753 2°49.801 -999 3.473496 33.654368 25.36124
2009-03-16 09:45:52 51°12.751 2°49.796 -999 3.473496 33.653473 25.326416
2009-03-16 09:45:57 51°12.748 2°49.791 -999 3.473496 33.653473 25.465713
2009-03-16 09:46:02 51°12.746 2°49.787 -999 3.473496 33.653473 25.465713
2009-03-16 09:46:07 51°12.743 2°49.782 -999 3.473703 33.654809 25.500537
2009-03-16 09:46:13 51°12.74 2°49.776 -999 3.473807 33.657714 25.674657
2009-03-16 09:46:17 51°12.738 2°49.772 -999 3.473911 33.659724 25.779129
2009-03-16 09:46:22 51°12.735 2°49.767 -999 3.473911 33.661514 25.674657
2009-03-16 09:46:27 51°12.732 2°49.763 -999 3.473911 33.660619 25.779129
2009-03-16 09:46:32 51°12.73 2°49.758 -999 3.473911 33.660619 25.779129
2009-03-16 09:46:37 51°12.727 2°49.753 -999 3.473807 33.659503 25.779129
2009-03-16 09:46:42 51°12.724 2°49.749 -999 3.473911 33.659724 25.744305
2009-03-16 09:46:47 51°12.722 2°49.743 -999 3.473911 33.657934 25.744305
2009-03-16 09:46:53 51°12.719 2°49.738 -999 3.474014 33.659049 25.639833
2009-03-16 09:46:57 51°12.716 2°49.734 -999 3.474118 33.659269 25.883601
2009-03-16 09:47:02 51°12.714 2°49.729 -999 3.474118 33.659269 25.883601
2009-03-16 09:47:07 51°12.711 2°49.725 -999 3.474221 33.661279 25.813953
2009-03-16 09:47:12 51°12.708 2°49.719 -999 3.474429 33.66351 26.231842
2009-03-16 09:47:17 51°12.705 2°49.715 -999 3.474532 33.666415 26.197018
2009-03-16 09:47:22 51°12.703 2°49.71 -999 3.474636 33.668425 26.197018
2009-03-16 09:47:27 51°12.7 2°49.706 -999 3.474636 33.668425 26.12737
2009-03-16 09:47:32 51°12.697 2°49.7 -999 3.474636 33.668425 26.12737
2009-03-16 09:47:37 51°12.695 2°49.695 -999 3.474739 33.670436 26.092546
2009-03-16 09:47:42 51°12.692 2°49.69 -999 3.474843 33.672447 26.092546